DC9PA-13 Weather Reports


Display with metric or nautical units.
time (UTC)temp
F
wind
direction
speed
MPH
gust
MPH
rain 1hr
in
rain 24hr
in
rain mn
in
humidity
%
barometer
mb
20260902130116 78 45 3.0 3.0 0.00 0.00 0.00 46 1006.0
20260902130047 78 270 0.0 0.0 0.00 0.00 0.00 46 1006.0
20260902130017 78 270 1.0 1.0 0.00 0.00 0.00 46 1006.0
20260902125946 78 270 0.0 0.0 0.00 0.00 0.00 48 1006.0
20260902125916 78 270 2.0 2.0 0.00 0.00 0.00 47 1006.0
20260902125847 78 248 4.0 5.0 0.00 0.00 0.00 46 1006.0
20260902125816 78 270 2.0 2.0 0.00 0.00 0.00 46 1006.0
20260902125746 78 292 2.0 2.0 0.00 0.00 0.00 46 1006.0
20260902125716 78 292 1.0 1.0 0.00 0.00 0.00 44 1006.0
20260902125646 78 292 0.0 0.0 0.00 0.00 0.00 44 1006.0
20260902125616 78 292 0.0 0.0 0.00 0.00 0.00 45 1006.0
20260902125547 78 292 1.0 1.0 0.00 0.00 0.00 45 1006.3
20260902125517 78 292 0.0 0.0 0.00 0.00 0.00 45 1006.3
20260902125416 80 292 4.0 5.0 0.00 0.00 0.00 44 1006.3
20260902125346 79 202 0.0 0.0 0.00 0.00 0.00 44 1006.3
20260902125316 79 202 0.0 0.0 0.00 0.00 0.00 43 1006.3
20260902125246 79 202 0.0 0.0 0.00 0.00 0.00 43 1006.3
20260902125216 79 202 0.0 0.0 0.00 0.00 0.00 44 1006.3
20260902125147 79 202 2.0 2.0 0.00 0.00 0.00 44 1006.3
20260902125116 79 202 3.0 3.0 0.00 0.00 0.00 45 1006.3
20260902125047 79 202 3.0 3.0 0.00 0.00 0.00 45 1006.1
20260902125019 79 202 3.0 3.0 0.00 0.00 0.00 43 1006.1
20260902124944 79 225 2.0 2.0 0.00 0.00 0.00 43 1006.1
20260902124846 79 202 0.0 0.0 0.00 0.00 0.00 45 1006.1
20260902124816 79 225 2.0 2.0 0.00 0.00 0.00 43 1006.1
20260902124746 79 225 3.0 3.0 0.00 0.00 0.00 42 1006.1
20260902124716 79 225 2.0 2.0 0.00 0.00 0.00 43 1006.1
20260902124646 79 225 1.0 1.0 0.00 0.00 0.00 44 1006.1
20260902124616 79 225 0.0 0.0 0.00 0.00 0.00 43 1006.1
20260902124546 78 225 0.0 0.0 0.00 0.00 0.00 44 1006.2
20260902124516 78 225 2.0 2.0 0.00 0.00 0.00 44 1006.2
20260902124446 78 225 0.0 0.0 0.00 0.00 0.00 44 1006.2
20260902124416 78 225 2.0 2.0 0.00 0.00 0.00 46 1006.2
20260902124346 78 225 0.0 0.0 0.00 0.00 0.00 45 1006.2
20260902124316 78 225 0.0 0.0 0.00 0.00 0.00 48 1006.2
20260902124246 78 225 2.0 2.0 0.00 0.00 0.00 47 1006.2
20260902124217 78 292 2.0 2.0 0.00 0.00 0.00 48 1006.2
20260902124146 78 292 4.0 4.0 0.00 0.00 0.00 49 1006.2
20260902124116 78 292 3.0 3.0 0.00 0.00 0.00 48 1006.2
20260902124046 78 292 3.0 4.0 0.00 0.00 0.00 46 1006.2
20260902124016 78 292 0.0 0.0 0.00 0.00 0.00 46 1006.2
20260902123946 78 292 2.0 2.0 0.00 0.00 0.00 46 1006.2
20260902123916 78 292 2.0 2.0 0.00 0.00 0.00 47 1006.2
20260902123846 78 292 3.0 3.0 0.00 0.00 0.00 47 1006.2
20260902123817 78 270 2.0 2.0 0.00 0.00 0.00 47 1006.2
20260902123746 78 270 0.0 0.0 0.00 0.00 0.00 47 1006.2
20260902123717 79 270 2.0 2.0 0.00 0.00 0.00 46 1006.2
20260902123646 79 270 3.0 3.0 0.00 0.00 0.00 45 1006.2
20260902123615 79 180 2.0 2.0 0.00 0.00 0.00 45 1006.2
20260902123546 79 180 2.0 2.0 0.00 0.00 0.00 43 1006.2
20260902123516 79 180 1.0 1.0 0.00 0.00 0.00 44 1006.2
20260902123446 79 180 2.0 2.0 0.00 0.00 0.00 43 1006.2
20260902123415 79 180 4.0 4.0 0.00 0.00 0.00 45 1006.2
20260902123347 78 158 0.0 0.0 0.00 0.00 0.00 44 1006.2
20260902123316 78 158 1.0 1.0 0.00 0.00 0.00 43 1006.2
20260902123246 78 158 0.0 0.0 0.00 0.00 0.00 44 1006.2
20260902123216 78 158 1.0 1.0 0.00 0.00 0.00 44 1006.2
20260902123146 78 158 2.0 2.0 0.00 0.00 0.00 44 1006.2
20260902123116 78 158 0.0 0.0 0.00 0.00 0.00 46 1006.2
20260902123045 77 158 0.0 0.0 0.00 0.00 0.00 46 1006.4
20260902123015 77 158 2.0 2.0 0.00 0.00 0.00 46 1006.4
20260902122945 77 180 0.0 0.0 0.00 0.00 0.00 47 1006.4
20260902122916 77 180 2.0 2.0 0.00 0.00 0.00 47 1006.4
20260902122848 77 315 0.0 0.0 0.00 0.00 0.00 47 1006.4
20260902122817 77 315 2.0 2.0 0.00 0.00 0.00 47 1006.4
20260902122745 77 315 2.0 2.0 0.00 0.00 0.00 47 1006.4
20260902122716 77 315 3.0 3.0 0.00 0.00 0.00 48 1006.4
20260902122645 77 315 2.0 2.0 0.00 0.00 0.00 48 1006.4
20260902122615 77 292 4.0 4.0 0.00 0.00 0.00 48 1006.4
20260902122545 77 292 3.0 3.0 0.00 0.00 0.00 48 1006.2
20260902122515 77 270 4.0 4.0 0.00 0.00 0.00 48 1006.2
20260902122445 77 292 2.0 2.0 0.00 0.00 0.00 50 1006.2
20260902122416 77 292 3.0 3.0 0.00 0.00 0.00 48 1006.2
20260902122345 77 270 3.0 4.0 0.00 0.00 0.00 48 1006.2
20260902122316 77 315 4.0 4.0 0.00 0.00 0.00 48 1006.2
20260902122245 77 0 2.0 2.0 0.00 0.00 0.00 48 1006.2
20260902122216 77 0 2.0 2.0 0.00 0.00 0.00 48 1006.2
20260902122146 77 0 3.0 3.0 0.00 0.00 0.00 50 1006.2
20260902122115 77 0 3.0 3.0 0.00 0.00 0.00 49 1006.2
20260902122046 77 292 4.0 4.0 0.00 0.00 0.00 48 1006.6
20260902122015 77 0 4.0 4.0 0.00 0.00 0.00 48 1006.6
20260902121945 78 0 4.0 5.0 0.00 0.00 0.00 47 1006.6
20260902121915 78 22 4.0 4.0 0.00 0.00 0.00 47 1006.6
20260902121845 78 45 0.0 0.0 0.00 0.00 0.00 47 1006.6
20260902121815 78 45 2.0 2.0 0.00 0.00 0.00 47 1006.6
20260902121745 78 45 3.0 3.0 0.00 0.00 0.00 47 1006.6
20260902121715 78 0 3.0 3.0 0.00 0.00 0.00 46 1006.6
20260902121645 78 22 4.0 4.0 0.00 0.00 0.00 46 1006.6
20260902121616 79 270 2.0 2.0 0.00 0.00 0.00 45 1006.6
20260902121545 79 248 0.0 0.0 0.00 0.00 0.00 45 1006.6
20260902121516 78 248 0.0 0.0 0.00 0.00 0.00 46 1006.6
20260902121446 78 248 2.0 2.0 0.00 0.00 0.00 46 1006.6
20260902121415 78 248 2.0 2.0 0.00 0.00 0.00 45 1006.6
20260902121345 78 248 2.0 2.0 0.00 0.00 0.00 46 1006.6
20260902121315 78 248 2.0 2.0 0.00 0.00 0.00 47 1006.6
20260902121245 78 248 2.0 2.0 0.00 0.00 0.00 46 1006.6
20260902121216 78 248 0.0 0.0 0.00 0.00 0.00 46 1006.6
20260902121149 78 248 0.0 0.0 0.00 0.00 0.00 47 1006.6
20260902121116 78 248 2.0 2.0 0.00 0.00 0.00 46 1006.6
20260902121049 79 248 2.0 2.0 0.00 0.00 0.00 46 1006.6
20260902121015 79 248 2.0 2.0 0.00 0.00 0.00 45 1006.6
20260902120945 78 248 2.0 2.0 0.00 0.00 0.00 48 1006.6
20260902120916 78 248 3.0 4.0 0.00 0.00 0.00 45 1006.6
20260902120845 78 338 0.0 0.0 0.00 0.00 0.00 48 1006.6
20260902120815 78 338 0.0 0.0 0.00 0.00 0.00 47 1006.6
20260902120745 78 338 2.0 2.0 0.00 0.00 0.00 46 1006.6
20260902120715 78 338 2.0 2.0 0.00 0.00 0.00 48 1006.6
20260902120645 78 338 0.0 0.0 0.00 0.00 0.00 47 1006.6
20260902120616 78 338 2.0 2.0 0.00 0.00 0.00 48 1006.6
20260902120545 78 338 2.0 2.0 0.00 0.00 0.00 48 1006.6
20260902120515 78 338 2.0 2.0 0.00 0.00 0.00 48 1006.6
20260902120446 78 338 2.0 2.0 0.00 0.00 0.00 47 1006.6
20260902120416 78 45 2.0 2.0 0.00 0.00 0.00 49 1006.6
20260902120345 78 45 0.0 0.0 0.00 0.00 0.00 48 1006.6
20260902120315 78 45 0.0 0.0 0.00 0.00 0.00 50 1006.6
20260902120245 78 45 2.0 2.0 0.00 0.00 0.00 51 1006.6
20260902120219 77 45 0.0 0.0 0.00 0.00 0.00 50 1006.6
20260902120145 77 45 0.0 0.0 0.00 0.00 0.00 49 1006.6
20260902120115 77 45 2.0 2.0 0.00 0.00 0.00 49 1006.6
20260902120045 77 45 2.0 2.0 0.00 0.00 0.00 48 1006.7
20260902120015 77 45 2.0 2.0 0.00 0.00 0.00 49 1006.7
20260902115945 77 45 2.0 2.0 0.00 0.00 0.00 52 1006.7
20260902115915 76 45 0.0 0.0 0.00 0.00 0.00 50 1006.7
20260902115845 76 45 0.0 0.0 0.00 0.00 0.00 51 1006.7
20260902115815 76 45 0.0 0.0 0.00 0.00 0.00 51 1006.7
20260902115745 76 45 0.0 0.0 0.00 0.00 0.00 50 1006.7
20260902115715 76 45 0.0 0.0 0.00 0.00 0.00 51 1006.7
20260902115644 76 45 0.0 0.0 0.00 0.00 0.00 51 1006.7
20260902115615 76 45 0.0 0.0 0.00 0.00 0.00 50 1006.7
20260902115545 76 45 0.0 0.0 0.00 0.00 0.00 50 1006.7
20260902115446 75 45 3.0 3.0 0.00 0.00 0.00 50 1006.7
20260902115415 75 45 0.0 0.0 0.00 0.00 0.00 51 1006.7
20260902115346 75 45 0.0 0.0 0.00 0.00 0.00 51 1006.7
20260902115315 75 45 0.0 0.0 0.00 0.00 0.00 52 1006.7
20260902115245 75 45 1.0 1.0 0.00 0.00 0.00 52 1006.7
20260902115215 75 45 0.0 0.0 0.00 0.00 0.00 52 1006.7
20260902115145 75 45 0.0 0.0 0.00 0.00 0.00 53 1006.7
20260902115114 75 45 0.0 0.0 0.00 0.00 0.00 53 1006.7
20260902115045 75 45 0.0 0.0 0.00 0.00 0.00 53 1006.7
20260902115015 75 45 0.0 0.0 0.00 0.00 0.00 54 1006.7
20260902114915 75 45 2.0 2.0 0.00 0.00 0.00 53 1006.7
20260902114845 76 45 2.0 2.0 0.00 0.00 0.00 51 1006.7
20260902114814 76 45 2.0 2.0 0.00 0.00 0.00 52 1006.7
20260902114744 76 45 0.0 0.0 0.00 0.00 0.00 52 1006.7
20260902114714 76 45 0.0 0.0 0.00 0.00 0.00 52 1006.7
20260902114644 76 45 2.0 2.0 0.00 0.00 0.00 51 1006.7
20260902114614 76 45 1.0 1.0 0.00 0.00 0.00 51 1006.7
20260902114544 76 45 2.0 2.0 0.00 0.00 0.00 54 1006.7
20260902114514 76 45 0.0 0.0 0.00 0.00 0.00 55 1006.7
20260902114444 76 90 0.0 0.0 0.00 0.00 0.00 52 1006.7
20260902114415 76 90 2.0 2.0 0.00 0.00 0.00 53 1006.7
20260902114345 76 90 2.0 2.0 0.00 0.00 0.00 53 1006.7
20260902114314 76 90 0.0 0.0 0.00 0.00 0.00 53 1006.7
20260902114244 76 90 2.0 2.0 0.00 0.00 0.00 54 1006.7
20260902114214 76 315 0.0 0.0 0.00 0.00 0.00 53 1006.7
20260902114144 76 315 4.0 4.0 0.00 0.00 0.00 53 1006.7
20260902114114 76 292 3.0 3.0 0.00 0.00 0.00 52 1006.7
20260902114045 76 338 2.0 2.0 0.00 0.00 0.00 52 1006.8
20260902114016 76 338 2.0 2.0 0.00 0.00 0.00 52 1006.8
20260902113944 76 338 0.0 0.0 0.00 0.00 0.00 53 1006.8
20260902113914 76 338 3.0 3.0 0.00 0.00 0.00 52 1006.8
20260902113845 76 158 0.0 0.0 0.00 0.00 0.00 52 1006.8
20260902113814 76 158 0.0 0.0 0.00 0.00 0.00 52 1006.8
20260902113744 76 158 0.0 0.0 0.00 0.00 0.00 52 1006.8
20260902113714 76 158 1.0 1.0 0.00 0.00 0.00 52 1006.8
20260902113644 76 158 2.0 2.0 0.00 0.00 0.00 53 1006.8
20260902113614 76 158 3.0 3.0 0.00 0.00 0.00 53 1006.8
20260902113546 76 158 2.0 2.0 0.00 0.00 0.00 53 1006.7
20260902113515 76 158 2.0 2.0 0.00 0.00 0.00 53 1006.7
20260902113444 76 158 4.0 4.0 0.00 0.00 0.00 53 1006.7
20260902113414 76 112 2.0 2.0 0.00 0.00 0.00 53 1006.7
20260902113344 76 90 2.0 2.0 0.00 0.00 0.00 53 1006.7
20260902113314 76 90 3.0 3.0 0.00 0.00 0.00 53 1006.7
20260902113245 76 158 3.0 3.0 0.00 0.00 0.00 52 1006.7
20260902113214 76 112 4.0 4.0 0.00 0.00 0.00 52 1006.7
20260902113144 76 158 5.0 5.0 0.00 0.00 0.00 51 1006.7
20260902113114 76 158 4.0 4.0 0.00 0.00 0.00 51 1006.7
20260902113044 76 158 2.0 2.0 0.00 0.00 0.00 52 1006.8
20260902113014 76 158 2.0 2.0 0.00 0.00 0.00 52 1006.8
20260902112944 76 68 2.0 2.0 0.00 0.00 0.00 52 1006.8
20260902112914 76 68 2.0 2.0 0.00 0.00 0.00 55 1006.8
20260902112845 76 68 2.0 2.0 0.00 0.00 0.00 55 1006.8
20260902112814 76 68 0.0 0.0 0.00 0.00 0.00 54 1006.8
20260902112744 76 68 2.0 2.0 0.00 0.00 0.00 55 1006.8
20260902112716 76 68 2.0 2.0 0.00 0.00 0.00 55 1006.8
20260902112645 76 68 3.0 3.0 0.00 0.00 0.00 54 1006.8
20260902112615 77 68 5.0 6.0 0.00 0.00 0.00 51 1006.8
20260902112545 77 22 0.0 0.0 0.00 0.00 0.00 52 1006.8
20260902112514 77 0 2.0 2.0 0.00 0.00 0.00 52 1006.8
20260902112444 76 0 2.0 2.0 0.00 0.00 0.00 51 1006.8
20260902112414 76 0 2.0 2.0 0.00 0.00 0.00 50 1006.8
20260902112344 76 180 2.0 2.0 0.00 0.00 0.00 50 1006.8
20260902112314 76 180 2.0 2.0 0.00 0.00 0.00 51 1006.8
20260902112246 76 180 2.0 2.0 0.00 0.00 0.00 52 1006.8
20260902112214 76 180 0.0 0.0 0.00 0.00 0.00 54 1006.8
20260902112145 76 180 0.0 0.0 0.00 0.00 0.00 53 1006.8
20260902112114 76 180 1.0 1.0 0.00 0.00 0.00 52 1006.8
20260902112045 75 180 0.0 0.0 0.00 0.00 0.00 53 1006.8
20260902112014 75 180 0.0 0.0 0.00 0.00 0.00 53 1006.8
20260902111944 75 180 0.0 0.0 0.00 0.00 0.00 52 1006.8
20260902111914 75 180 2.0 2.0 0.00 0.00 0.00 51 1006.8
20260902111844 75 180 0.0 0.0 0.00 0.00 0.00 52 1006.8
20260902111814 75 180 0.0 0.0 0.00 0.00 0.00 53 1006.8
20260902111744 75 180 0.0 0.0 0.00 0.00 0.00 52 1006.8
20260902111714 75 180 2.0 2.0 0.00 0.00 0.00 53 1006.8
20260902111644 75 180 2.0 2.0 0.00 0.00 0.00 52 1006.8
20260902111615 75 45 2.0 2.0 0.00 0.00 0.00 52 1006.8
20260902111544 75 45 2.0 2.0 0.00 0.00 0.00 55 1006.8
20260902111515 75 45 0.0 0.0 0.00 0.00 0.00 54 1006.8
20260902111445 75 45 3.0 3.0 0.00 0.00 0.00 54 1006.8
20260902111414 75 45 2.0 2.0 0.00 0.00 0.00 55 1006.8
20260902111345 75 45 2.0 2.0 0.00 0.00 0.00 54 1006.8
20260902111314 75 45 2.0 2.0 0.00 0.00 0.00 54 1006.8
20260902111244 75 45 4.0 4.0 0.00 0.00 0.00 54 1006.8
20260902111214 75 45 2.0 2.0 0.00 0.00 0.00 54 1006.8
20260902111144 75 0 2.0 2.0 0.00 0.00 0.00 53 1006.8
20260902111115 75 45 3.0 3.0 0.00 0.00 0.00 52 1006.8
20260902111044 75 45 0.0 0.0 0.00 0.00 0.00 52 1006.9
20260902111018 75 45 0.0 0.0 0.00 0.00 0.00 53 1006.9
20260902110944 75 45 1.0 1.0 0.00 0.00 0.00 54 1006.9
20260902110914 75 45 3.0 3.0 0.00 0.00 0.00 53 1006.9
20260902110844 76 292 2.0 2.0 0.00 0.00 0.00 53 1006.9
20260902110815 75 292 2.0 2.0 0.00 0.00 0.00 53 1006.9
20260902110744 75 292 2.0 2.0 0.00 0.00 0.00 52 1006.9
20260902110714 75 292 3.0 3.0 0.00 0.00 0.00 52 1006.9
20260902110644 75 270 2.0 2.0 0.00 0.00 0.00 52 1006.9
20260902110615 75 158 0.0 0.0 0.00 0.00 0.00 53 1006.9
20260902110544 75 158 0.0 0.0 0.00 0.00 0.00 52 1007.0
20260902110514 75 158 0.0 0.0 0.00 0.00 0.00 53 1007.0
20260902110444 75 158 0.0 0.0 0.00 0.00 0.00 52 1007.0
20260902110414 75 158 3.0 3.0 0.00 0.00 0.00 55 1007.0
20260902110344 75 158 0.0 0.0 0.00 0.00 0.00 54 1007.0
20260902110316 75 158 2.0 2.0 0.00 0.00 0.00 54 1007.0
20260902110244 75 158 2.0 2.0 0.00 0.00 0.00 53 1007.0
20260902110214 75 135 3.0 3.0 0.00 0.00 0.00 54 1007.0
20260902110148 75 135 2.0 2.0 0.00 0.00 0.00 54 1007.0
20260902110114 75 68 3.0 3.0 0.00 0.00 0.00 54 1007.0
20260902110044 75 68 2.0 2.0 0.00 0.00 0.00 53 1006.9
20260902110014 75 135 0.0 0.0 0.00 0.00 0.00 53 1006.9
20260902105944 75 135 2.0 2.0 0.00 0.00 0.00 53 1006.9
20260902105914 75 135 1.0 1.0 0.00 0.00 0.00 54 1006.9
20260902105844 75 135 0.0 0.0 0.00 0.00 0.00 55 1006.9
20260902105814 75 135 0.0 0.0 0.00 0.00 0.00 54 1006.9
20260902105744 75 135 0.0 0.0 0.00 0.00 0.00 53 1006.9
20260902105714 75 135 1.0 1.0 0.00 0.00 0.00 53 1006.9
20260902105614 75 135 0.0 0.0 0.00 0.00 0.00 54 1006.9
20260902105544 75 135 0.0 0.0 0.00 0.00 0.00 56 1006.9
20260902105514 75 135 0.0 0.0 0.00 0.00 0.00 53 1006.9
20260902105444 75 135 1.0 1.0 0.00 0.00 0.00 54 1006.9
20260902105414 75 135 1.0 1.0 0.00 0.00 0.00 54 1006.9
20260902105344 75 135 0.0 0.0 0.00 0.00 0.00 54 1006.9
20260902105314 75 135 0.0 0.0 0.00 0.00 0.00 54 1006.9
20260902105244 75 135 0.0 0.0 0.00 0.00 0.00 56 1006.9
20260902105216 75 135 0.0 0.0 0.00 0.00 0.00 56 1006.9
20260902105144 75 135 1.0 1.0 0.00 0.00 0.00 55 1006.9
20260902105114 75 135 2.0 2.0 0.00 0.00 0.00 54 1006.9
20260902105044 75 135 2.0 2.0 0.00 0.00 0.00 54 1007.0
20260902105015 75 135 2.0 2.0 0.00 0.00 0.00 54 1007.0
20260902105001 75 135 2.0 2.0 0.00 0.00 0.00 53 1007.0
20260902104944 75 135 2.0 2.0 0.00 0.00 0.00 53 1007.0
20260902104844 74 135 0.0 0.0 0.00 0.00 0.00 54 1007.0
20260902104814 74 135 0.0 0.0 0.00 0.00 0.00 54 1007.0
20260902104744 74 135 0.0 0.0 0.00 0.00 0.00 54 1007.0
20260902104714 74 135 0.0 0.0 0.00 0.00 0.00 55 1007.0
20260902104644 75 135 2.0 2.0 0.00 0.00 0.00 54 1007.0
20260902104614 75 135 2.0 2.0 0.00 0.00 0.00 54 1007.0
20260902104544 75 135 2.0 2.0 0.00 0.00 0.00 53 1007.2
20260902104514 74 135 0.0 0.0 0.00 0.00 0.00 56 1007.2
20260902104444 74 135 0.0 0.0 0.00 0.00 0.00 56 1007.2
20260902104414 74 135 2.0 2.0 0.00 0.00 0.00 54 1007.2
20260902104347 74 135 2.0 2.0 0.00 0.00 0.00 54 1007.2
20260902104314 74 135 2.0 2.0 0.00 0.00 0.00 54 1007.2
20260902104244 74 135 1.0 1.0 0.00 0.00 0.00 55 1007.2
20260902104214 74 135 2.0 2.0 0.00 0.00 0.00 54 1007.2
20260902104144 75 135 2.0 2.0 0.00 0.00 0.00 54 1007.2
20260902104114 75 135 3.0 4.0 0.00 0.00 0.00 53 1007.2
20260902104043 75 270 2.0 2.0 0.00 0.00 0.00 52 1007.1
20260902104013 75 315 2.0 2.0 0.00 0.00 0.00 53 1007.1
20260902103944 75 315 0.0 0.0 0.00 0.00 0.00 53 1007.1
20260902103914 75 315 0.0 0.0 0.00 0.00 0.00 54 1007.1
20260902103844 75 315 0.0 0.0 0.00 0.00 0.00 53 1007.1
20260902103745 75 315 0.0 0.0 0.00 0.00 0.00 52 1007.1
20260902103714 75 315 0.0 0.0 0.00 0.00 0.00 53 1007.1
20260902103644 75 315 0.0 0.0 0.00 0.00 0.00 53 1007.1
20260902103614 75 315 0.0 0.0 0.00 0.00 0.00 54 1007.1
20260902103544 75 315 0.0 0.0 0.00 0.00 0.00 53 1007.2
20260902103514 75 315 0.0 0.0 0.00 0.00 0.00 52 1007.2
20260902103444 75 315 0.0 0.0 0.00 0.00 0.00 53 1007.2
20260902103414 75 315 3.0 3.0 0.00 0.00 0.00 53 1007.2
20260902103344 75 315 0.0 0.0 0.00 0.00 0.00 54 1007.2
20260902103314 75 315 2.0 2.0 0.00 0.00 0.00 53 1007.2
20260902103244 75 315 2.0 2.0 0.00 0.00 0.00 53 1007.2
20260902103214 75 315 2.0 2.0 0.00 0.00 0.00 53 1007.2
20260902103144 75 315 2.0 2.0 0.00 0.00 0.00 55 1007.2
20260902103114 75 315 1.0 1.0 0.00 0.00 0.00 54 1007.2
20260902103044 75 315 0.0 0.0 0.00 0.00 0.00 55 1007.1
20260902103015 74 315 2.0 2.0 0.00 0.00 0.00 54 1007.1
20260902102944 74 315 1.0 1.0 0.00 0.00 0.00 53 1007.1
20260902102914 74 315 2.0 2.0 0.00 0.00 0.00 54 1007.1
20260902102844 74 315 2.0 2.0 0.00 0.00 0.00 53 1007.1
20260902102814 74 315 0.0 0.0 0.00 0.00 0.00 54 1007.1
20260902102744 74 315 3.0 3.0 0.00 0.00 0.00 53 1007.1
20260902102714 74 112 0.0 0.0 0.00 0.00 0.00 53 1007.1
20260902102644 74 112 2.0 2.0 0.00 0.00 0.00 53 1007.1
20260902102614 74 135 1.0 1.0 0.00 0.00 0.00 53 1007.1
20260902102544 74 135 2.0 2.0 0.00 0.00 0.00 53 1007.3
20260902102514 75 135 0.0 0.0 0.00 0.00 0.00 52 1007.3
20260902102443 75 135 2.0 2.0 0.00 0.00 0.00 52 1007.3
20260902102414 75 135 2.0 2.0 0.00 0.00 0.00 53 1007.3
20260902102344 75 135 2.0 2.0 0.00 0.00 0.00 52 1007.3
20260902102313 75 135 4.0 5.0 0.00 0.00 0.00 51 1007.3
20260902102244 75 180 2.0 0.0 0.00 0.00 0.00 53 1007.3
20260902102214 75 180 2.0 2.0 0.00 0.00 0.00 53 1007.3
20260902102144 75 180 2.0 2.0 0.00 0.00 0.00 52 1007.3
20260902102113 75 180 1.0 1.0 0.00 0.00 0.00 51 1007.3
20260902102044 75 180 2.0 2.0 0.00 0.00 0.00 50 1007.5
20260902102014 75 180 1.0 1.0 0.00 0.00 0.00 51 1007.5
20260902101943 75 180 1.0 1.0 0.00 0.00 0.00 53 1007.5
20260902101915 74 180 2.0 2.0 0.00 0.00 0.00 52 1007.5
20260902101844 74 112 1.0 1.0 0.00 0.00 0.00 52 1007.5
20260902101814 74 68 0.0 0.0 0.00 0.00 0.00 53 1007.5
20260902101744 74 68 0.0 0.0 0.00 0.00 0.00 54 1007.5
20260902101714 74 68 0.0 0.0 0.00 0.00 0.00 55 1007.5
20260902101644 74 68 2.0 2.0 0.00 0.00 0.00 53 1007.5
20260902101618 75 68 3.0 3.0 0.00 0.00 0.00 53 1007.5
20260902101544 75 158 2.0 2.0 0.00 0.00 0.00 52 1007.3
20260902101514 75 158 2.0 2.0 0.00 0.00 0.00 54 1007.3
20260902101444 75 158 2.0 2.0 0.00 0.00 0.00 53 1007.3
20260902101414 75 45 1.0 1.0 0.00 0.00 0.00 54 1007.3
20260902101344 75 45 2.0 2.0 0.00 0.00 0.00 54 1007.3
20260902101313 75 45 2.0 2.0 0.00 0.00 0.00 52 1007.3
20260902101244 75 45 2.0 2.0 0.00 0.00 0.00 51 1007.3
20260902101214 75 45 1.0 1.0 0.00 0.00 0.00 51 1007.3
20260902101114 74 158 2.0 2.0 0.00 0.00 0.00 52 1007.3
20260902101044 74 158 2.0 2.0 0.00 0.00 0.00 53 1007.3
20260902101014 74 338 0.0 0.0 0.00 0.00 0.00 53 1007.3
20260902100945 74 338 0.0 0.0 0.00 0.00 0.00 53 1007.3
20260902100914 74 338 2.0 2.0 0.00 0.00 0.00 52 1007.3
20260902100844 74 338 0.0 0.0 0.00 0.00 0.00 54 1007.3
20260902100814 74 338 1.0 1.0 0.00 0.00 0.00 52 1007.3
20260902100714 74 338 2.0 2.0 0.00 0.00 0.00 52 1007.3
20260902100644 74 338 2.0 2.0 0.00 0.00 0.00 52 1007.3
20260902100613 74 292 2.0 2.0 0.00 0.00 0.00 52 1007.3
20260902100544 73 292 2.0 2.0 0.00 0.00 0.00 53 1007.3
20260902100514 73 315 2.0 2.0 0.00 0.00 0.00 53 1007.3
20260902100444 73 315 0.0 0.0 0.00 0.00 0.00 54 1007.3
20260902100414 73 315 0.0 0.0 0.00 0.00 0.00 55 1007.3
20260902100344 73 315 0.0 0.0 0.00 0.00 0.00 55 1007.3
20260902100314 73 315 0.0 0.0 0.00 0.00 0.00 57 1007.3
20260902100244 73 315 0.0 0.0 0.00 0.00 0.00 55 1007.3
20260902100213 73 315 1.0 1.0 0.00 0.00 0.00 55 1007.3
20260902100144 73 315 0.0 0.0 0.00 0.00 0.00 55 1007.3
20260902100113 73 315 2.0 2.0 0.00 0.00 0.00 55 1007.3
20260902100044 73 315 2.0 2.0 0.00 0.00 0.00 55 1007.5
20260902100018 73 315 3.0 4.0 0.00 0.00 0.00 54 1007.5
20260902095944 73 292 2.0 2.0 0.00 0.00 0.00 55 1007.5
20260902095914 73 90 3.0 3.0 0.00 0.00 0.00 54 1007.5
20260902095844 73 90 1.0 1.0 0.00 0.00 0.00 56 1007.5
20260902095814 73 90 2.0 2.0 0.00 0.00 0.00 57 1007.5
20260902095744 73 90 2.0 2.0 0.00 0.00 0.00 55 1007.5
20260902095714 73 90 2.0 2.0 0.00 0.00 0.00 55 1007.5
20260902095644 73 90 2.0 2.0 0.00 0.00 0.00 56 1007.5
20260902095614 73 90 2.0 2.0 0.00 0.00 0.00 55 1007.5
20260902095544 73 68 4.0 4.0 0.00 0.00 0.00 54 1007.5
20260902095515 73 180 2.0 2.0 0.00 0.00 0.00 55 1007.5
20260902095444 72 180 4.0 4.0 0.00 0.00 0.00 54 1007.5
20260902095414 72 180 2.0 2.0 0.00 0.00 0.00 54 1007.5
20260902095343 72 90 1.0 1.0 0.00 0.00 0.00 53 1007.5
20260902095315 72 90 2.0 2.0 0.00 0.00 0.00 55 1007.5
20260902095244 72 90 0.0 0.0 0.00 0.00 0.00 56 1007.5
20260902095214 72 90 0.0 0.0 0.00 0.00 0.00 56 1007.5
20260902095143 72 90 1.0 1.0 0.00 0.00 0.00 57 1007.5
20260902095114 72 90 0.0 0.0 0.00 0.00 0.00 55 1007.5
20260902095045 72 90 0.0 0.0 0.00 0.00 0.00 55 1007.5
20260902095014 71 90 0.0 0.0 0.00 0.00 0.00 57 1007.5
20260902094944 71 90 0.0 0.0 0.00 0.00 0.00 57 1007.5
20260902094914 71 90 2.0 2.0 0.00 0.00 0.00 57 1007.5
20260902094844 71 90 0.0 0.0 0.00 0.00 0.00 57 1007.5
20260902094813 71 90 2.0 2.0 0.00 0.00 0.00 57 1007.5
20260902094744 71 90 2.0 2.0 0.00 0.00 0.00 58 1007.5
20260902094714 71 90 0.0 0.0 0.00 0.00 0.00 58 1007.5
20260902094646 71 90 2.0 2.0 0.00 0.00 0.00 58 1007.5
20260902094614 71 90 2.0 2.0 0.00 0.00 0.00 57 1007.5
20260902094544 72 90 4.0 4.0 0.00 0.00 0.00 57 1007.5
20260902094514 72 158 3.0 3.0 0.00 0.00 0.00 56 1007.5
20260902094444 73 158 2.0 2.0 0.00 0.00 0.00 55 1007.5
20260902094414 73 158 2.0 2.0 0.00 0.00 0.00 58 1007.5
20260902094343 73 158 0.0 0.0 0.00 0.00 0.00 56 1007.5
20260902094313 73 158 2.0 2.0 0.00 0.00 0.00 56 1007.5
20260902094243 73 158 2.0 2.0 0.00 0.00 0.00 56 1007.5
20260902094144 73 90 2.0 2.0 0.00 0.00 0.00 56 1007.5
20260902094114 73 45 1.0 1.0 0.00 0.00 0.00 57 1007.5
20260902094044 73 45 2.0 2.0 0.00 0.00 0.00 55 1007.4
20260902094014 73 45 0.0 0.0 0.00 0.00 0.00 56 1007.4
20260902093944 73 45 2.0 2.0 0.00 0.00 0.00 56 1007.4
20260902093913 73 45 0.0 0.0 0.00 0.00 0.00 57 1007.4
20260902093844 73 45 0.0 0.0 0.00 0.00 0.00 56 1007.4
20260902093813 73 45 2.0 2.0 0.00 0.00 0.00 55 1007.4
20260902093743 73 45 1.0 1.0 0.00 0.00 0.00 55 1007.4
20260902093714 73 45 0.0 0.0 0.00 0.00 0.00 55 1007.4
20260902093647 73 45 2.0 2.0 0.00 0.00 0.00 55 1007.4
20260902093613 73 45 2.0 2.0 0.00 0.00 0.00 55 1007.4
20260902093543 73 45 0.0 0.0 0.00 0.00 0.00 57 1007.3
20260902093514 73 45 2.0 2.0 0.00 0.00 0.00 57 1007.3
20260902093447 73 45 0.0 0.0 0.00 0.00 0.00 56 1007.3
20260902093414 73 45 0.0 0.0 0.00 0.00 0.00 57 1007.3
20260902093344 73 45 0.0 0.0 0.00 0.00 0.00 56 1007.3
20260902093314 73 45 0.0 0.0 0.00 0.00 0.00 56 1007.3
20260902093243 73 45 1.0 1.0 0.00 0.00 0.00 56 1007.3
20260902093214 73 45 2.0 2.0 0.00 0.00 0.00 57 1007.3
20260902093144 73 45 2.0 2.0 0.00 0.00 0.00 57 1007.3
20260902093114 73 45 1.0 1.0 0.00 0.00 0.00 56 1007.3
20260902093044 73 45 0.0 0.0 0.00 0.00 0.00 57 1007.5
20260902093014 73 45 2.0 2.0 0.00 0.00 0.00 57 1007.5
20260902092944 73 45 0.0 0.0 0.00 0.00 0.00 57 1007.5
20260902092914 73 45 2.0 2.0 0.00 0.00 0.00 58 1007.5
20260902092844 73 45 3.0 3.0 0.00 0.00 0.00 57 1007.5
20260902092814 72 45 2.0 2.0 0.00 0.00 0.00 56 1007.5
20260902092743 72 45 2.0 2.0 0.00 0.00 0.00 56 1007.5
20260902092714 72 45 0.0 0.0 0.00 0.00 0.00 55 1007.5
20260902092644 72 45 0.0 0.0 0.00 0.00 0.00 55 1007.5
20260902092614 72 45 0.0 0.0 0.00 0.00 0.00 55 1007.5
20260902092543 72 45 2.0 2.0 0.00 0.00 0.00 55 1007.4
20260902092514 72 45 0.0 0.0 0.00 0.00 0.00 55 1007.4
20260902092444 72 45 1.0 1.0 0.00 0.00 0.00 55 1007.4
20260902092414 72 45 2.0 2.0 0.00 0.00 0.00 57 1007.4
20260902092345 72 45 2.0 2.0 0.00 0.00 0.00 56 1007.4
20260902092313 72 45 2.0 2.0 0.00 0.00 0.00 56 1007.4
20260902092244 72 45 2.0 2.0 0.00 0.00 0.00 56 1007.4
20260902092214 72 45 1.0 1.0 0.00 0.00 0.00 56 1007.4
20260902092144 72 45 0.0 0.0 0.00 0.00 0.00 56 1007.4
20260902092113 72 45 1.0 1.0 0.00 0.00 0.00 58 1007.4
20260902092043 72 45 2.0 2.0 0.00 0.00 0.00 57 1007.1
20260902092015 72 90 2.0 2.0 0.00 0.00 0.00 57 1007.1
20260902091944 72 90 4.0 4.0 0.00 0.00 0.00 57 1007.1
20260902091913 72 90 4.0 4.0 0.00 0.00 0.00 56 1007.1
20260902091844 73 158 2.0 2.0 0.00 0.00 0.00 55 1007.1
20260902091813 73 90 4.0 5.0 0.00 0.00 0.00 54 1007.1
20260902091744 73 45 3.0 4.0 0.00 0.00 0.00 53 1007.1
20260902091714 73 225 2.0 2.0 0.00 0.00 0.00 55 1007.1
20260902091646 73 225 2.0 2.0 0.00 0.00 0.00 54 1007.1
20260902091614 73 225 2.0 2.0 0.00 0.00 0.00 54 1007.1
20260902091543 73 225 3.0 3.0 0.00 0.00 0.00 54 1007.5
20260902091443 74 225 4.0 4.0 0.00 0.00 0.00 52 1007.5
20260902091414 74 158 2.0 2.0 0.00 0.00 0.00 53 1007.5
20260902091344 75 158 3.0 3.0 0.00 0.00 0.00 52 1007.5
20260902091244 75 158 1.0 1.0 0.00 0.00 0.00 54 1007.5
20260902091214 75 158 2.0 2.0 0.00 0.00 0.00 53 1007.5
20260902091144 75 158 3.0 3.0 0.00 0.00 0.00 52 1007.5
20260902091113 75 158 2.0 2.0 0.00 0.00 0.00 52 1007.5
20260902091044 75 158 2.0 2.0 0.00 0.00 0.00 52 1007.4
20260902091013 75 112 3.0 3.0 0.00 0.00 0.00 51 1007.4
20260902090944 74 45 2.0 2.0 0.00 0.00 0.00 50 1007.4
20260902090913 74 45 1.0 1.0 0.00 0.00 0.00 51 1007.4
20260902090844 74 45 2.0 2.0 0.00 0.00 0.00 52 1007.4
20260902090816 74 45 0.0 0.0 0.00 0.00 0.00 52 1007.4
20260902090743 74 45 0.0 0.0 0.00 0.00 0.00 52 1007.4
20260902090715 74 45 1.0 1.0 0.00 0.00 0.00 52 1007.4
20260902090644 74 45 2.0 2.0 0.00 0.00 0.00 51 1007.4
20260902090614 74 45 0.0 0.0 0.00 0.00 0.00 52 1007.4
20260902090544 74 45 0.0 0.0 0.00 0.00 0.00 51 1007.4
20260902090514 74 45 0.0 0.0 0.00 0.00 0.00 51 1007.4
20260902090443 74 45 2.0 2.0 0.00 0.00 0.00 52 1007.4
20260902090414 73 45 2.0 2.0 0.00 0.00 0.00 52 1007.4
20260902090344 73 45 2.0 2.0 0.00 0.00 0.00 52 1007.4
20260902090314 73 45 3.0 4.0 0.00 0.00 0.00 52 1007.4
20260902090244 73 180 0.0 0.0 0.00 0.00 0.00 53 1007.4
20260902090214 73 180 2.0 2.0 0.00 0.00 0.00 53 1007.4
20260902090144 73 180 2.0 2.0 0.00 0.00 0.00 53 1007.4
20260902090114 73 180 2.0 2.0 0.00 0.00 0.00 53 1007.4
20260902090043 73 180 2.0 2.0 0.00 0.00 0.00 53 1007.3
20260902090014 73 158 3.0 3.0 0.00 0.00 0.00 53 1007.3
20260902085944 73 158 5.0 5.0 0.00 0.00 0.00 54 1007.3
20260902085914 73 90 3.0 3.0 0.00 0.00 0.00 55 1007.3
20260902085843 73 68 4.0 4.0 0.00 0.00 0.00 51 1007.3
20260902085815 73 68 2.0 2.0 0.00 0.00 0.00 56 1007.3
20260902085743 73 315 0.0 0.0 0.00 0.00 0.00 57 1007.3
20260902085714 72 315 0.0 0.0 0.00 0.00 0.00 55 1007.3
20260902085644 72 315 0.0 0.0 0.00 0.00 0.00 55 1007.3
20260902085614 72 315 2.0 2.0 0.00 0.00 0.00 55 1007.3
20260902085544 72 315 3.0 3.0 0.00 0.00 0.00 54 1007.4
20260902085514 72 315 0.0 0.0 0.00 0.00 0.00 55 1007.4
20260902085443 72 315 2.0 2.0 0.00 0.00 0.00 56 1007.4
20260902085414 72 315 2.0 2.0 0.00 0.00 0.00 56 1007.4
20260902085345 72 315 2.0 2.0 0.00 0.00 0.00 54 1007.4
20260902085314 72 315 0.0 0.0 0.00 0.00 0.00 54 1007.4
20260902085244 72 315 2.0 2.0 0.00 0.00 0.00 54 1007.4
20260902085213 72 315 2.0 2.0 0.00 0.00 0.00 54 1007.4
20260902085143 72 315 0.0 0.0 0.00 0.00 0.00 54 1007.4
20260902085116 73 315 3.0 4.0 0.00 0.00 0.00 54 1007.4
20260902085044 73 315 2.0 2.0 0.00 0.00 0.00 54 1007.6
20260902085014 73 315 0.0 0.0 0.00 0.00 0.00 54 1007.6
20260902084944 73 315 2.0 2.0 0.00 0.00 0.00 54 1007.6
20260902084844 73 315 2.0 2.0 0.00 0.00 0.00 54 1007.6
20260902084813 73 315 4.0 4.0 0.00 0.00 0.00 53 1007.6
20260902084744 73 315 3.0 3.0 0.00 0.00 0.00 54 1007.6
20260902084714 73 315 1.0 1.0 0.00 0.00 0.00 54 1007.6
20260902084644 73 315 2.0 2.0 0.00 0.00 0.00 54 1007.6
20260902084614 73 315 0.0 0.0 0.00 0.00 0.00 54 1007.6
20260902084544 73 315 1.0 1.0 0.00 0.00 0.00 55 1007.6
20260902084514 72 315 2.0 2.0 0.00 0.00 0.00 55 1007.6
20260902084444 72 315 1.0 1.0 0.00 0.00 0.00 55 1007.6
20260902084414 72 315 2.0 2.0 0.00 0.00 0.00 56 1007.6
20260902084344 72 315 2.0 2.0 0.00 0.00 0.00 56 1007.6
20260902084313 72 315 2.0 2.0 0.00 0.00 0.00 56 1007.6
20260902084243 72 45 2.0 2.0 0.00 0.00 0.00 55 1007.6
20260902084213 72 45 2.0 2.0 0.00 0.00 0.00 54 1007.6
20260902084144 72 45 0.0 0.0 0.00 0.00 0.00 55 1007.6
20260902084114 72 45 0.0 0.0 0.00 0.00 0.00 56 1007.6
20260902084044 72 45 2.0 2.0 0.00 0.00 0.00 56 1007.4
20260902084013 72 45 2.0 2.0 0.00 0.00 0.00 57 1007.4
20260902083943 72 68 2.0 2.0 0.00 0.00 0.00 56 1007.4
20260902083913 72 68 2.0 2.0 0.00 0.00 0.00 57 1007.4
20260902083844 72 68 0.0 0.0 0.00 0.00 0.00 57 1007.4
20260902083814 72 68 0.0 0.0 0.00 0.00 0.00 59 1007.4
20260902083744 72 68 2.0 2.0 0.00 0.00 0.00 58 1007.4
20260902083713 72 68 2.0 2.0 0.00 0.00 0.00 58 1007.4
20260902083644 72 68 0.0 0.0 0.00 0.00 0.00 56 1007.4
20260902083614 72 68 2.0 2.0 0.00 0.00 0.00 57 1007.4
20260902083543 72 68 2.0 2.0 0.00 0.00 0.00 57 1007.4
20260902083443 71 68 0.0 0.0 0.00 0.00 0.00 57 1007.4
20260902083414 71 68 0.0 0.0 0.00 0.00 0.00 57 1007.4
20260902083343 71 68 3.0 3.0 0.00 0.00 0.00 57 1007.4
20260902083314 71 68 2.0 2.0 0.00 0.00 0.00 57 1007.4
20260902083244 71 68 2.0 2.0 0.00 0.00 0.00 59 1007.4
20260902083214 71 68 0.0 0.0 0.00 0.00 0.00 58 1007.4
20260902083143 71 68 0.0 0.0 0.00 0.00 0.00 60 1007.4
20260902083114 71 68 0.0 0.0 0.00 0.00 0.00 59 1007.4
20260902083044 70 68 0.0 0.0 0.00 0.00 0.00 59 1007.4
20260902083014 70 68 0.0 0.0 0.00 0.00 0.00 60 1007.4
20260902082943 70 68 0.0 0.0 0.00 0.00 0.00 60 1007.4
20260902082914 70 68 2.0 2.0 0.00 0.00 0.00 62 1007.4
20260902082843 70 68 0.0 0.0 0.00 0.00 0.00 62 1007.4
20260902082814 70 68 0.0 0.0 0.00 0.00 0.00 61 1007.4
20260902082743 70 68 2.0 2.0 0.00 0.00 0.00 62 1007.4
20260902082714 70 68 2.0 2.0 0.00 0.00 0.00 61 1007.4
20260902082643 71 68 4.0 4.0 0.00 0.00 0.00 59 1007.4
20260902082613 71 45 3.0 3.0 0.00 0.00 0.00 60 1007.4
20260902082544 71 45 3.0 4.0 0.00 0.00 0.00 59 1007.4
20260902082513 71 180 2.0 2.0 0.00 0.00 0.00 58 1007.4
20260902082444 71 158 3.0 4.0 0.00 0.00 0.00 58 1007.4
20260902082414 71 135 2.0 2.0 0.00 0.00 0.00 59 1007.4
20260902082344 70 90 2.0 2.0 0.00 0.00 0.00 59 1007.4
20260902082314 70 90 2.0 2.0 0.00 0.00 0.00 59 1007.4
20260902082244 70 90 2.0 2.0 0.00 0.00 0.00 59 1007.4
20260902082214 70 68 2.0 2.0 0.00 0.00 0.00 61 1007.4
20260902082144 70 68 2.0 2.0 0.00 0.00 0.00 61 1007.4
20260902082113 70 68 2.0 2.0 0.00 0.00 0.00 60 1007.4
20260902082046 70 68 2.0 2.0 0.00 0.00 0.00 60 1007.2
20260902082014 71 68 4.0 4.0 0.00 0.00 0.00 58 1007.2
20260902081943 71 68 3.0 4.0 0.00 0.00 0.00 59 1007.2
20260902081913 71 68 0.0 0.0 0.00 0.00 0.00 58 1007.2
20260902081848 71 68 0.0 0.0 0.00 0.00 0.00 58 1007.2
20260902081818 71 68 0.0 0.0 0.00 0.00 0.00 57 1007.2
20260902081744 71 68 0.0 0.0 0.00 0.00 0.00 58 1007.2
20260902081714 71 68 2.0 2.0 0.00 0.00 0.00 61 1007.2
20260902081644 71 68 2.0 2.0 0.00 0.00 0.00 60 1007.2
20260902081613 71 68 2.0 2.0 0.00 0.00 0.00 59 1007.2
20260902081543 71 68 2.0 2.0 0.00 0.00 0.00 59 1007.2
20260902081514 71 68 2.0 2.0 0.00 0.00 0.00 58 1007.2
20260902081444 71 68 0.0 0.0 0.00 0.00 0.00 57 1007.2
20260902081413 71 68 0.0 0.0 0.00 0.00 0.00 58 1007.2
20260902081344 71 68 0.0 0.0 0.00 0.00 0.00 60 1007.2
20260902081314 71 68 1.0 1.0 0.00 0.00 0.00 57 1007.2
20260902081244 72 68 0.0 0.0 0.00 0.00 0.00 57 1007.2
20260902081115 72 68 2.0 2.0 0.00 0.00 0.00 56 1007.2
20260902081043 72 68 0.0 0.0 0.00 0.00 0.00 59 1007.3
20260902081014 71 68 0.0 0.0 0.00 0.00 0.00 57 1007.3
20260902080944 71 68 0.0 0.0 0.00 0.00 0.00 56 1007.3
20260902080913 71 68 2.0 2.0 0.00 0.00 0.00 56 1007.3
20260902080844 71 112 2.0 2.0 0.00 0.00 0.00 54 1007.3
20260902080813 71 315 1.0 1.0 0.00 0.00 0.00 56 1007.3
20260902080744 71 315 2.0 2.0 0.00 0.00 0.00 55 1007.3
20260902080713 71 315 2.0 2.0 0.00 0.00 0.00 57 1007.3
20260902080644 71 315 0.0 0.0 0.00 0.00 0.00 57 1007.3
20260902080613 71 315 0.0 0.0 0.00 0.00 0.00 56 1007.3
20260902080543 71 315 1.0 1.0 0.00 0.00 0.00 57 1007.4
20260902080513 71 315 2.0 2.0 0.00 0.00 0.00 58 1007.4
20260902080443 71 315 3.0 3.0 0.00 0.00 0.00 58 1007.4
20260902080413 71 315 2.0 2.0 0.00 0.00 0.00 59 1007.4
20260902080343 71 315 1.0 1.0 0.00 0.00 0.00 59 1007.4
20260902080314 71 315 0.0 0.0 0.00 0.00 0.00 59 1007.4
20260902080243 71 315 2.0 2.0 0.00 0.00 0.00 59 1007.4
20260902080214 71 292 0.0 0.0 0.00 0.00 0.00 58 1007.4
20260902080143 71 292 2.0 2.0 0.00 0.00 0.00 57 1007.4
20260902080114 71 292 2.0 2.0 0.00 0.00 0.00 57 1007.4
20260902080044 71 292 0.0 0.0 0.00 0.00 0.00 57 1007.3
20260902080015 71 292 0.0 0.0 0.00 0.00 0.00 59 1007.3
20260902075943 71 292 1.0 1.0 0.00 0.00 0.00 57 1007.3
20260902075914 71 292 2.0 2.0 0.00 0.00 0.00 56 1007.3
20260902075843 70 292 2.0 2.0 0.00 0.00 0.00 55 1007.3
20260902075813 70 292 2.0 2.0 0.00 0.00 0.00 55 1007.3
20260902075744 70 292 0.0 0.0 0.00 0.00 0.00 56 1007.3
20260902075714 70 292 0.0 0.0 0.00 0.00 0.00 57 1007.3
20260902075644 69 292 0.0 0.0 0.00 0.00 0.00 58 1007.3
20260902075615 69 292 0.0 0.0 0.00 0.00 0.00 60 1007.3
20260902075543 69 292 0.0 0.0 0.00 0.00 0.00 59 1007.5
20260902075514 69 292 0.0 0.0 0.00 0.00 0.00 59 1007.5
20260902075443 69 292 0.0 0.0 0.00 0.00 0.00 60 1007.5
20260902075413 69 292 0.0 0.0 0.00 0.00 0.00 63 1007.5
20260902075344 68 292 0.0 0.0 0.00 0.00 0.00 64 1007.5
20260902075314 68 292 0.0 0.0 0.00 0.00 0.00 64 1007.5
20260902075243 68 292 0.0 0.0 0.00 0.00 0.00 63 1007.5
20260902075213 68 292 0.0 0.0 0.00 0.00 0.00 62 1007.5
20260902075145 68 292 0.0 0.0 0.00 0.00 0.00 62 1007.5
20260902075114 68 292 0.0 0.0 0.00 0.00 0.00 62 1007.5
20260902075043 68 292 0.0 0.0 0.00 0.00 0.00 63 1007.5
20260902075014 68 292 0.0 0.0 0.00 0.00 0.00 65 1007.5
20260902074943 68 292 0.0 0.0 0.00 0.00 0.00 64 1007.5
20260902074915 68 292 0.0 0.0 0.00 0.00 0.00 64 1007.5
20260902074743 69 292 0.0 0.0 0.00 0.00 0.00 64 1007.5
20260902074713 69 292 0.0 0.0 0.00 0.00 0.00 64 1007.5
20260902074644 69 292 0.0 0.0 0.00 0.00 0.00 65 1007.5
20260902074613 69 292 0.0 0.0 0.00 0.00 0.00 66 1007.5
20260902074543 69 292 0.0 0.0 0.00 0.00 0.00 66 1007.3
20260902074513 69 292 0.0 0.0 0.00 0.00 0.00 66 1007.3
20260902074443 69 292 0.0 0.0 0.00 0.00 0.00 66 1007.3
20260902074414 69 292 0.0 0.0 0.00 0.00 0.00 64 1007.3
20260902074343 69 292 0.0 0.0 0.00 0.00 0.00 63 1007.3
20260902074314 68 292 0.0 0.0 0.00 0.00 0.00 63 1007.3
20260902074243 68 292 0.0 0.0 0.00 0.00 0.00 65 1007.3
20260902074215 68 292 0.0 0.0 0.00 0.00 0.00 63 1007.3
20260902074143 68 292 0.0 0.0 0.00 0.00 0.00 64 1007.3
20260902074114 68 292 0.0 0.0 0.00 0.00 0.00 65 1007.3
20260902074043 67 292 0.0 0.0 0.00 0.00 0.00 66 1007.3
20260902074013 67 292 0.0 0.0 0.00 0.00 0.00 66 1007.3
20260902073943 67 292 0.0 0.0 0.00 0.00 0.00 67 1007.3
20260902073914 67 292 0.0 0.0 0.00 0.00 0.00 68 1007.3
20260902073844 67 292 0.0 0.0 0.00 0.00 0.00 68 1007.3
20260902073813 67 292 0.0 0.0 0.00 0.00 0.00 69 1007.3
20260902073743 67 292 0.0 0.0 0.00 0.00 0.00 69 1007.3
20260902073713 67 292 0.0 0.0 0.00 0.00 0.00 71 1007.3
20260902073643 67 292 0.0 0.0 0.00 0.00 0.00 71 1007.3
20260902073613 67 292 0.0 0.0 0.00 0.00 0.00 71 1007.3
20260902073543 67 292 0.0 0.0 0.00 0.00 0.00 71 1007.4
20260902073514 67 292 0.0 0.0 0.00 0.00 0.00 71 1007.4
20260902073443 67 292 0.0 0.0 0.00 0.00 0.00 71 1007.4
20260902073413 67 292 0.0 0.0 0.00 0.00 0.00 71 1007.4
20260902073343 67 292 0.0 0.0 0.00 0.00 0.00 70 1007.4
20260902073315 68 292 0.0 0.0 0.00 0.00 0.00 70 1007.4
20260902073243 68 292 0.0 0.0 0.00 0.00 0.00 70 1007.4
20260902073215 68 292 0.0 0.0 0.00 0.00 0.00 70 1007.4
20260902073143 68 292 0.0 0.0 0.00 0.00 0.00 70 1007.4
20260902073114 68 292 0.0 0.0 0.00 0.00 0.00 70 1007.4
20260902073043 68 292 0.0 0.0 0.00 0.00 0.00 70 1007.5
20260902073014 69 292 0.0 0.0 0.00 0.00 0.00 68 1007.5
20260902072943 69 292 0.0 0.0 0.00 0.00 0.00 67 1007.5
20260902072913 69 292 0.0 0.0 0.00 0.00 0.00 66 1007.5
20260902072843 69 292 0.0 0.0 0.00 0.00 0.00 66 1007.5
20260902072813 68 292 0.0 0.0 0.00 0.00 0.00 67 1007.5
20260902072743 68 292 0.0 0.0 0.00 0.00 0.00 66 1007.5
20260902072714 68 292 0.0 0.0 0.00 0.00 0.00 67 1007.5
20260902072613 68 292 0.0 0.0 0.00 0.00 0.00 69 1007.5
20260902072543 67 292 0.0 0.0 0.00 0.00 0.00 69 1007.4
20260902072513 67 292 0.0 0.0 0.00 0.00 0.00 69 1007.4
20260902072443 67 292 0.0 0.0 0.00 0.00 0.00 69 1007.4
20260902072413 67 292 0.0 0.0 0.00 0.00 0.00 68 1007.4
20260902072343 67 292 0.0 0.0 0.00 0.00 0.00 68 1007.4
20260902072313 67 292 0.0 0.0 0.00 0.00 0.00 69 1007.4
20260902072243 67 292 0.0 0.0 0.00 0.00 0.00 70 1007.4
20260902072213 67 292 0.0 0.0 0.00 0.00 0.00 70 1007.4
20260902072143 67 292 0.0 0.0 0.00 0.00 0.00 70 1007.4
20260902072113 66 292 0.0 0.0 0.00 0.00 0.00 70 1007.4
20260902072043 66 292 0.0 0.0 0.00 0.00 0.00 72 1007.4
20260902072013 66 292 0.0 0.0 0.00 0.00 0.00 72 1007.4
20260902071943 66 292 0.0 0.0 0.00 0.00 0.00 72 1007.4
20260902071913 66 292 0.0 0.0 0.00 0.00 0.00 72 1007.4
20260902071843 66 292 0.0 0.0 0.00 0.00 0.00 73 1007.4
20260902071743 67 292 0.0 0.0 0.00 0.00 0.00 72 1007.4
20260902071713 67 292 0.0 0.0 0.00 0.00 0.00 72 1007.4
20260902071646 67 292 0.0 0.0 0.00 0.00 0.00 72 1007.4
20260902071613 67 292 0.0 0.0 0.00 0.00 0.00 72 1007.4
20260902071543 67 292 0.0 0.0 0.00 0.00 0.00 71 1007.6
20260902071513 67 292 0.0 0.0 0.00 0.00 0.00 71 1007.6
20260902071443 67 292 0.0 0.0 0.00 0.00 0.00 70 1007.6
20260902071413 67 292 0.0 0.0 0.00 0.00 0.00 70 1007.6
20260902071343 67 292 0.0 0.0 0.00 0.00 0.00 70 1007.6
20260902071314 66 292 0.0 0.0 0.00 0.00 0.00 69 1007.6
20260902071243 66 292 0.0 0.0 0.00 0.00 0.00 69 1007.6
20260902071213 66 292 0.0 0.0 0.00 0.00 0.00 70 1007.6
20260902071143 66 292 0.0 0.0 0.00 0.00 0.00 69 1007.6
20260902071113 65 292 0.0 0.0 0.00 0.00 0.00 71 1007.6
20260902071043 65 292 0.0 0.0 0.00 0.00 0.00 72 1007.5
20260902071014 65 292 0.0 0.0 0.00 0.00 0.00 72 1007.5
20260902070943 65 292 0.0 0.0 0.00 0.00 0.00 73 1007.5
20260902070914 65 292 0.0 0.0 0.00 0.00 0.00 73 1007.5
20260902070843 65 292 0.0 0.0 0.00 0.00 0.00 75 1007.5
20260902070813 65 292 0.0 0.0 0.00 0.00 0.00 76 1007.5
20260902070743 65 292 0.0 0.0 0.00 0.00 0.00 76 1007.5
20260902070713 64 292 0.0 0.0 0.00 0.00 0.00 76 1007.5
20260902070644 64 292 0.0 0.0 0.00 0.00 0.00 76 1007.5
20260902070613 64 292 0.0 0.0 0.00 0.00 0.00 75 1007.5
20260902070543 64 292 0.0 0.0 0.00 0.00 0.00 75 1007.5
20260902070513 64 292 0.0 0.0 0.00 0.00 0.00 75 1007.5
20260902070444 64 292 0.0 0.0 0.00 0.00 0.00 75 1007.5
20260902070413 64 292 0.0 0.0 0.00 0.00 0.00 76 1007.5
20260902070343 64 292 0.0 0.0 0.00 0.00 0.00 77 1007.5
20260902070313 64 292 0.0 0.0 0.00 0.00 0.00 77 1007.5
20260902070243 64 292 0.0 0.0 0.00 0.00 0.00 75 1007.5
20260902070213 65 292 0.0 0.0 0.00 0.00 0.00 75 1007.5
20260902070143 64 292 0.0 0.0 0.00 0.00 0.00 75 1007.5
20260902070113 64 292 0.0 0.0 0.00 0.00 0.00 75 1007.5
20260902070043 64 292 0.0 0.0 0.00 0.00 0.00 75 1007.5
20260902070014 64 292 0.0 0.0 0.00 0.00 0.00 74 1007.5
20260902065943 64 292 0.0 0.0 0.00 0.00 0.00 74 1007.5
20260902065913 64 292 0.0 0.0 0.00 0.00 0.00 75 1007.5
20260902065844 64 292 0.0 0.0 0.00 0.00 0.00 74 1007.5
20260902065813 64 292 0.0 0.0 0.00 0.00 0.00 74 1007.5
20260902065743 64 292 0.0 0.0 0.00 0.00 0.00 74 1007.5
20260902065713 64 292 0.0 0.0 0.00 0.00 0.00 74 1007.5
20260902065643 64 292 0.0 0.0 0.00 0.00 0.00 76 1007.5
20260902065613 64 292 0.0 0.0 0.00 0.00 0.00 76 1007.5
20260902065543 63 292 0.0 0.0 0.00 0.00 0.00 76 1007.2
20260902065513 63 292 0.0 0.0 0.00 0.00 0.00 76 1007.2
20260902065443 63 292 0.0 0.0 0.00 0.00 0.00 75 1007.2
20260902065413 63 292 0.0 0.0 0.00 0.00 0.00 77 1007.2
20260902065343 63 292 0.0 0.0 0.00 0.00 0.00 77 1007.2
20260902065313 63 292 0.0 0.0 0.00 0.00 0.00 77 1007.2
20260902065243 63 292 0.0 0.0 0.00 0.00 0.00 77 1007.2
20260902065143 63 292 0.0 0.0 0.00 0.00 0.00 77 1007.2
20260902065113 62 292 0.0 0.0 0.00 0.00 0.00 79 1007.2
20260902065043 62 292 0.0 0.0 0.00 0.00 0.00 80 1007.3
20260902065016 62 292 0.0 0.0 0.00 0.00 0.00 80 1007.3
20260902064944 62 292 0.0 0.0 0.00 0.00 0.00 79 1007.3
20260902064843 62 292 0.0 0.0 0.00 0.00 0.00 81 1007.3
20260902064813 62 292 0.0 0.0 0.00 0.00 0.00 80 1007.3
20260902064743 62 292 0.0 0.0 0.00 0.00 0.00 81 1007.3
20260902064713 62 292 0.0 0.0 0.00 0.00 0.00 81 1007.3
20260902064643 62 292 0.0 0.0 0.00 0.00 0.00 81 1007.3
20260902064613 62 292 0.0 0.0 0.00 0.00 0.00 83 1007.3
20260902064543 62 292 0.0 0.0 0.00 0.00 0.00 83 1007.3
20260902064514 62 292 0.0 0.0 0.00 0.00 0.00 82 1007.3
20260902064443 62 292 0.0 0.0 0.00 0.00 0.00 82 1007.3
20260902064413 62 292 0.0 0.0 0.00 0.00 0.00 82 1007.3
20260902064343 62 292 0.0 0.0 0.00 0.00 0.00 81 1007.3
20260902064313 62 292 0.0 0.0 0.00 0.00 0.00 81 1007.3
20260902064243 63 292 0.0 0.0 0.00 0.00 0.00 80 1007.3
20260902064213 63 292 0.0 0.0 0.00 0.00 0.00 80 1007.3
20260902064143 63 292 0.0 0.0 0.00 0.00 0.00 79 1007.3
20260902064113 64 292 0.0 0.0 0.00 0.00 0.00 78 1007.3
20260902064043 64 292 0.0 0.0 0.00 0.00 0.00 77 1007.4
20260902064013 63 292 0.0 0.0 0.00 0.00 0.00 76 1007.4
20260902063943 63 292 0.0 0.0 0.00 0.00 0.00 75 1007.4
20260902063913 63 292 0.0 0.0 0.00 0.00 0.00 74 1007.4
20260902063813 62 292 0.0 0.0 0.00 0.00 0.00 73 1007.4
20260902063743 62 292 0.0 0.0 0.00 0.00 0.00 75 1007.4
20260902063713 62 292 0.0 0.0 0.00 0.00 0.00 74 1007.4
20260902063643 61 292 0.0 0.0 0.00 0.00 0.00 77 1007.4
20260902063543 61 292 0.0 0.0 0.00 0.00 0.00 79 1007.5
20260902063513 61 292 0.0 0.0 0.00 0.00 0.00 81 1007.5
20260902063444 60 292 0.0 0.0 0.00 0.00 0.00 82 1007.5
20260902063413 60 292 0.0 0.0 0.00 0.00 0.00 82 1007.5
20260902063343 60 292 0.0 0.0 0.00 0.00 0.00 82 1007.5
20260902063313 60 292 0.0 0.0 0.00 0.00 0.00 83 1007.5
20260902063243 60 292 0.0 0.0 0.00 0.00 0.00 83 1007.5
20260902063213 60 292 0.0 0.0 0.00 0.00 0.00 83 1007.5
20260902063143 60 292 0.0 0.0 0.00 0.00 0.00 83 1007.5
20260902063113 60 292 0.0 0.0 0.00 0.00 0.00 83 1007.5
20260902063043 60 292 0.0 0.0 0.00 0.00 0.00 84 1007.4
20260902063013 60 292 0.0 0.0 0.00 0.00 0.00 84 1007.4
20260902062943 60 292 0.0 0.0 0.00 0.00 0.00 84 1007.4
20260902062913 60 292 0.0 0.0 0.00 0.00 0.00 84 1007.4
20260902062843 60 292 0.0 0.0 0.00 0.00 0.00 84 1007.4
20260902062813 60 292 0.0 0.0 0.00 0.00 0.00 84 1007.4
20260902062743 60 292 0.0 0.0 0.00 0.00 0.00 84 1007.4
20260902062713 60 292 0.0 0.0 0.00 0.00 0.00 84 1007.4
20260902062643 60 292 0.0 0.0 0.00 0.00 0.00 85 1007.4
20260902062613 60 292 0.0 0.0 0.00 0.00 0.00 84 1007.4
20260902062543 60 292 0.0 0.0 0.00 0.00 0.00 85 1007.3
20260902062513 60 292 0.0 0.0 0.00 0.00 0.00 84 1007.3
20260902062443 60 292 0.0 0.0 0.00 0.00 0.00 84 1007.3
20260902062413 60 292 0.0 0.0 0.00 0.00 0.00 84 1007.3
20260902062346 60 292 0.0 0.0 0.00 0.00 0.00 84 1007.3
20260902062313 60 292 0.0 0.0 0.00 0.00 0.00 84 1007.3
20260902062243 61 292 0.0 0.0 0.00 0.00 0.00 83 1007.3
20260902062213 61 292 0.0 0.0 0.00 0.00 0.00 82 1007.3
20260902062143 61 292 0.0 0.0 0.00 0.00 0.00 82 1007.3
20260902062113 62 292 0.0 0.0 0.00 0.00 0.00 82 1007.3
20260902062043 62 292 0.0 0.0 0.00 0.00 0.00 80 1007.1
20260902062013 62 292 0.0 0.0 0.00 0.00 0.00 81 1007.1
20260902061943 62 292 0.0 0.0 0.00 0.00 0.00 80 1007.1
20260902061914 62 292 0.0 0.0 0.00 0.00 0.00 79 1007.1
20260902061843 62 292 0.0 0.0 0.00 0.00 0.00 78 1007.1
20260902061813 62 292 0.0 0.0 0.00 0.00 0.00 78 1007.1
20260902061743 62 292 0.0 0.0 0.00 0.00 0.00 79 1007.1
20260902061713 62 292 0.0 0.0 0.00 0.00 0.00 78 1007.1
20260902061643 62 292 0.0 0.0 0.00 0.00 0.00 79 1007.1
20260902061613 62 292 0.0 0.0 0.00 0.00 0.00 78 1007.1
20260902061543 62 292 0.0 0.0 0.00 0.00 0.00 77 1007.3
20260902061513 62 292 0.0 0.0 0.00 0.00 0.00 78 1007.3
20260902061443 62 292 0.0 0.0 0.00 0.00 0.00 77 1007.3
20260902061413 62 292 0.0 0.0 0.00 0.00 0.00 77 1007.3
20260902061343 62 292 0.0 0.0 0.00 0.00 0.00 79 1007.3
20260902061313 62 292 0.0 0.0 0.00 0.00 0.00 78 1007.3
20260902061243 61 292 0.0 0.0 0.00 0.00 0.00 79 1007.3
20260902061213 61 292 0.0 0.0 0.00 0.00 0.00 79 1007.3
20260902061143 61 292 0.0 0.0 0.00 0.00 0.00 78 1007.3
20260902061113 61 292 0.0 0.0 0.00 0.00 0.00 79 1007.3
20260902061043 61 292 0.0 0.0 0.00 0.00 0.00 79 1007.3
20260902061013 61 292 0.0 0.0 0.00 0.00 0.00 79 1007.3
20260902060944 61 292 0.0 0.0 0.00 0.00 0.00 78 1007.3
20260902060913 61 292 0.0 0.0 0.00 0.00 0.00 79 1007.3
20260902060843 61 292 0.0 0.0 0.00 0.00 0.00 81 1007.3
20260902060813 61 292 0.0 0.0 0.00 0.00 0.00 80 1007.3
20260902060743 61 292 0.0 0.0 0.00 0.00 0.00 79 1007.3
20260902060713 61 292 0.0 0.0 0.00 0.00 0.00 78 1007.3
20260902060643 61 292 0.0 0.0 0.00 0.00 0.00 78 1007.3
20260902060613 61 292 0.0 0.0 0.00 0.00 0.00 78 1007.3
20260902060546 61 292 0.0 0.0 0.00 0.00 0.00 77 1007.3
20260902060513 61 292 0.0 0.0 0.00 0.00 0.00 77 1007.3
20260902060443 60 292 0.0 0.0 0.00 0.00 0.00 78 1007.3
20260902060413 60 292 0.0 0.0 0.00 0.00 0.00 78 1007.3
20260902060343 60 292 0.0 0.0 0.00 0.00 0.00 78 1007.3
20260902060313 60 292 0.0 0.0 0.00 0.00 0.00 77 1007.3
20260902060244 60 292 0.0 0.0 0.00 0.00 0.00 78 1007.3
20260902060213 60 292 0.0 0.0 0.00 0.00 0.00 78 1007.3
20260902060143 60 292 0.0 0.0 0.00 0.00 0.00 79 1007.3
20260902060114 60 292 0.0 0.0 0.00 0.00 0.00 81 1007.3
20260902060042 60 292 0.0 0.0 0.00 0.00 0.00 83 1007.2
20260902060013 60 292 0.0 0.0 0.00 0.00 0.00 83 1007.2
20260902055943 60 292 0.0 0.0 0.00 0.00 0.00 82 1007.2
20260902055913 60 292 0.0 0.0 0.00 0.00 0.00 82 1007.2
20260902055843 60 292 0.0 0.0 0.00 0.00 0.00 81 1007.2
20260902055813 60 292 0.0 0.0 0.00 0.00 0.00 81 1007.2
20260902055743 59 292 0.0 0.0 0.00 0.00 0.00 82 1007.2
20260902055643 59 292 0.0 0.0 0.00 0.00 0.00 81 1007.2
20260902055613 59 292 0.0 0.0 0.00 0.00 0.00 81 1007.2
20260902055543 59 292 0.0 0.0 0.00 0.00 0.00 80 1007.2
20260902055513 58 292 0.0 0.0 0.00 0.00 0.00 79 1007.2
20260902055443 58 292 0.0 0.0 0.00 0.00 0.00 80 1007.2
20260902055413 58 292 0.0 0.0 0.00 0.00 0.00 81 1007.2
20260902055343 58 292 0.0 0.0 0.00 0.00 0.00 81 1007.2
20260902055313 58 292 0.0 0.0 0.00 0.00 0.00 83 1007.2
20260902055242 57 292 0.0 0.0 0.00 0.00 0.00 82 1007.2
20260902055213 57 292 0.0 0.0 0.00 0.00 0.00 84 1007.2
20260902055142 57 292 0.0 0.0 0.00 0.00 0.00 83 1007.2
20260902055113 57 292 0.0 0.0 0.00 0.00 0.00 85 1007.2
20260902055043 57 292 0.0 0.0 0.00 0.00 0.00 85 1007.3
20260902055013 57 292 0.0 0.0 0.00 0.00 0.00 86 1007.3
20260902054943 57 292 0.0 0.0 0.00 0.00 0.00 85 1007.3
20260902054913 56 292 0.0 0.0 0.00 0.00 0.00 85 1007.3
20260902054842 56 292 0.0 0.0 0.00 0.00 0.00 87 1007.3
20260902054813 56 292 0.0 0.0 0.00 0.00 0.00 88 1007.3
20260902054743 56 292 0.0 0.0 0.00 0.00 0.00 88 1007.3
20260902054713 56 292 0.0 0.0 0.00 0.00 0.00 88 1007.3
20260902054643 56 292 0.0 0.0 0.00 0.00 0.00 88 1007.3
20260902054613 56 292 0.0 0.0 0.00 0.00 0.00 87 1007.3
20260902054543 56 292 0.0 0.0 0.00 0.00 0.00 87 1007.3
20260902054512 56 292 0.0 0.0 0.00 0.00 0.00 88 1007.3
20260902054442 56 292 0.0 0.0 0.00 0.00 0.00 88 1007.3
20260902054412 56 292 0.0 0.0 0.00 0.00 0.00 88 1007.3
20260902054243 56 292 0.0 0.0 0.00 0.00 0.00 87 1007.3
20260902054213 56 292 0.0 0.0 0.00 0.00 0.00 87 1007.3
20260902054143 56 292 0.0 0.0 0.00 0.00 0.00 88 1007.3
20260902054113 56 292 0.0 0.0 0.00 0.00 0.00 88 1007.3
20260902054043 56 292 0.0 0.0 0.00 0.00 0.00 87 1007.0
20260902054016 56 292 0.0 0.0 0.00 0.00 0.00 87 1007.0
20260902053943 57 292 0.0 0.0 0.00 0.00 0.00 86 1007.0
20260902053913 57 292 0.0 0.0 0.00 0.00 0.00 85 1007.0
20260902053843 58 292 0.0 0.0 0.00 0.00 0.00 85 1007.0
20260902053812 58 292 0.0 0.0 0.00 0.00 0.00 85 1007.0
20260902053744 58 292 0.0 0.0 0.00 0.00 0.00 83 1007.0
20260902053713 58 292 0.0 0.0 0.00 0.00 0.00 82 1007.0
20260902053643 58 292 0.0 0.0 0.00 0.00 0.00 82 1007.0
20260902053613 58 292 0.0 0.0 0.00 0.00 0.00 82 1007.0
20260902053543 58 292 0.0 0.0 0.00 0.00 0.00 82 1007.1
20260902053512 57 292 0.0 0.0 0.00 0.00 0.00 83 1007.1
20260902053443 57 292 0.0 0.0 0.00 0.00 0.00 85 1007.1
20260902053413 57 292 0.0 0.0 0.00 0.00 0.00 85 1007.1
20260902053343 56 292 0.0 0.0 0.00 0.00 0.00 85 1007.1
20260902053313 56 292 0.0 0.0 0.00 0.00 0.00 85 1007.1
20260902053243 56 292 0.0 0.0 0.00 0.00 0.00 87 1007.1
20260902053213 55 292 0.0 0.0 0.00 0.00 0.00 87 1007.1
20260902053142 55 292 0.0 0.0 0.00 0.00 0.00 87 1007.1
20260902053113 55 292 0.0 0.0 0.00 0.00 0.00 88 1007.1
20260902053042 54 292 0.0 0.0 0.00 0.00 0.00 89 1007.1
20260902053013 54 292 0.0 0.0 0.00 0.00 0.00 91 1007.1
20260902052942 54 292 0.0 0.0 0.00 0.00 0.00 90 1007.1
20260902052913 54 292 0.0 0.0 0.00 0.00 0.00 91 1007.1
20260902052843 53 292 0.0 0.0 0.00 0.00 0.00 94 1007.1
20260902052815 53 292 0.0 0.0 0.00 0.00 0.00 95 1007.1
20260902052743 53 292 0.0 0.0 0.00 0.00 0.00 97 1007.1
20260902052712 53 292 0.0 0.0 0.00 0.00 0.00 97 1007.1
20260902052642 53 292 0.0 0.0 0.00 0.00 0.00 97 1007.1
20260902052613 52 292 0.0 0.0 0.00 0.00 0.00 97 1007.1
20260902052543 52 292 0.0 0.0 0.00 0.00 0.00 97 1007.0
20260902052512 52 292 0.0 0.0 0.00 0.00 0.00 97 1007.0
20260902052443 52 292 0.0 0.0 0.00 0.00 0.00 97 1007.0
20260902052413 52 292 0.0 0.0 0.00 0.00 0.00 97 1007.0
20260902052343 52 292 0.0 0.0 0.00 0.00 0.00 97 1007.0
20260902052313 52 292 0.0 0.0 0.00 0.00 0.00 97 1007.0
20260902052242 52 292 0.0 0.0 0.00 0.00 0.00 97 1007.0
20260902052214 52 292 0.0 0.0 0.00 0.00 0.00 97 1007.0
20260902052143 52 292 0.0 0.0 0.00 0.00 0.00 97 1007.0
20260902052112 51 292 0.0 0.0 0.00 0.00 0.00 97 1007.0
20260902052043 51 292 0.0 0.0 0.00 0.00 0.00 97 1007.0
20260902052013 51 292 0.0 0.0 0.00 0.00 0.00 96 1007.0
20260902051942 51 292 0.0 0.0 0.00 0.00 0.00 96 1007.0
20260902051913 51 292 0.0 0.0 0.00 0.00 0.00 96 1007.0
20260902051842 51 292 0.0 0.0 0.00 0.00 0.00 96 1007.0
20260902051812 51 292 0.0 0.0 0.00 0.00 0.00 96 1007.0
20260902051743 51 292 0.0 0.0 0.00 0.00 0.00 96 1007.0
20260902051712 51 292 0.0 0.0 0.00 0.00 0.00 96 1007.0
20260902051642 51 292 0.0 0.0 0.00 0.00 0.00 96 1007.0
20260902051613 51 292 0.0 0.0 0.00 0.00 0.00 96 1007.0
20260902051543 51 292 0.0 0.0 0.00 0.00 0.00 97 1007.0
20260902051513 51 292 0.0 0.0 0.00 0.00 0.00 96 1007.0
20260902051442 51 292 0.0 0.0 0.00 0.00 0.00 96 1007.0
20260902051413 51 292 0.0 0.0 0.00 0.00 0.00 96 1007.0
20260902051343 51 292 0.0 0.0 0.00 0.00 0.00 97 1007.0
20260902051313 51 292 0.0 0.0 0.00 0.00 0.00 97 1007.0
20260902051242 51 292 0.0 0.0 0.00 0.00 0.00 96 1007.0
20260902051213 51 292 0.0 0.0 0.00 0.00 0.00 97 1007.0
20260902051143 51 292 0.0 0.0 0.00 0.00 0.00 97 1007.0
20260902051113 51 292 0.0 0.0 0.00 0.00 0.00 96 1007.0
20260902051042 51 292 0.0 0.0 0.00 0.00 0.00 96 1007.0
20260902051012 51 292 0.0 0.0 0.00 0.00 0.00 97 1007.0
20260902050942 51 292 0.0 0.0 0.00 0.00 0.00 96 1007.0
20260902050843 51 292 0.0 0.0 0.00 0.00 0.00 96 1007.0
20260902050817 51 292 0.0 0.0 0.00 0.00 0.00 96 1007.0
20260902050742 51 292 0.0 0.0 0.00 0.00 0.00 96 1007.0
20260902050713 51 292 0.0 0.0 0.00 0.00 0.00 96 1007.0
20260902050643 51 292 0.0 0.0 0.00 0.00 0.00 96 1007.0
20260902050612 51 292 0.0 0.0 0.00 0.00 0.00 96 1007.0
20260902050543 51 292 0.0 0.0 0.00 0.00 0.00 96 1007.0
20260902050514 51 292 0.0 0.0 0.00 0.00 0.00 96 1007.0
20260902050443 51 292 0.0 0.0 0.00 0.00 0.00 96 1007.0
20260902050412 51 292 0.0 0.0 0.00 0.00 0.00 96 1007.0
20260902050343 51 292 0.0 0.0 0.00 0.00 0.00 96 1007.0
20260902050312 51 292 0.0 0.0 0.00 0.00 0.00 96 1007.0
20260902050243 51 292 0.0 0.0 0.00 0.00 0.00 96 1007.0
20260902050214 51 292 0.0 0.0 0.00 0.00 0.00 96 1007.0
20260902050142 51 292 0.0 0.0 0.00 0.00 0.00 96 1007.0
20260902050113 51 292 0.0 0.0 0.00 0.00 0.00 96 1007.0
20260902050043 51 292 0.0 0.0 0.00 0.00 0.00 96 1007.0
20260902050015 51 292 0.0 0.0 0.00 0.00 0.00 96 1007.0
20260902045944 51 292 0.0 0.0 0.00 0.00 0.00 96 1007.0
20260902045913 51 292 0.0 0.0 0.00 0.00 0.00 96 1007.0
20260902045843 51 292 0.0 0.0 0.00 0.00 0.00 96 1007.0
20260902045812 51 292 0.0 0.0 0.00 0.00 0.00 96 1007.0
20260902045743 51 292 0.0 0.0 0.00 0.00 0.00 96 1007.0
20260902045713 51 292 0.0 0.0 0.00 0.00 0.00 96 1007.0
20260902045642 51 292 0.0 0.0 0.00 0.00 0.00 97 1007.0
20260902045612 51 292 0.0 0.0 0.00 0.00 0.00 96 1007.0
20260902045543 51 292 0.0 0.0 0.00 0.00 0.00 97 1006.7
20260902045512 51 292 0.0 0.0 0.00 0.00 0.00 97 1006.7
20260902045442 51 292 0.0 0.0 0.00 0.00 0.00 97 1006.7
20260902045412 51 292 0.0 0.0 0.00 0.00 0.00 97 1006.7
20260902045343 51 292 0.0 0.0 0.00 0.00 0.00 96 1006.7
20260902045313 51 292 0.0 0.0 0.00 0.00 0.00 96 1006.7
20260902045242 51 292 0.0 0.0 0.00 0.00 0.00 96 1006.7
20260902045213 51 292 0.0 0.0 0.00 0.00 0.00 96 1006.7
20260902045142 51 292 0.0 0.0 0.00 0.00 0.00 96 1006.7
20260902045112 51 292 0.0 0.0 0.00 0.00 0.00 96 1006.7
20260902045042 51 292 0.0 0.0 0.00 0.00 0.00 96 1006.9
20260902045012 51 292 0.0 0.0 0.00 0.00 0.00 96 1006.9
20260902044943 51 292 0.0 0.0 0.00 0.00 0.00 96 1006.9
20260902044842 51 292 0.0 0.0 0.00 0.00 0.00 96 1006.9
20260902044813 51 292 0.0 0.0 0.00 0.00 0.00 96 1006.9
20260902044742 51 292 0.0 0.0 0.00 0.00 0.00 96 1006.9
20260902044713 51 292 0.0 0.0 0.00 0.00 0.00 96 1006.9
20260902044642 51 292 0.0 0.0 0.00 0.00 0.00 97 1006.9
20260902044613 51 292 0.0 0.0 0.00 0.00 0.00 96 1006.9
20260902044512 51 292 0.0 0.0 0.00 0.00 0.00 96 1006.7
20260902044443 51 292 0.0 0.0 0.00 0.00 0.00 96 1006.7
20260902044413 51 292 0.0 0.0 0.00 0.00 0.00 96 1006.7
20260902044342 51 292 0.0 0.0 0.00 0.00 0.00 97 1006.7
20260902044312 51 292 0.0 0.0 0.00 0.00 0.00 97 1006.7
20260902044242 51 292 0.0 0.0 0.00 0.00 0.00 97 1006.7
20260902044214 51 292 0.0 0.0 0.00 0.00 0.00 97 1006.7
20260902044142 51 292 0.0 0.0 0.00 0.00 0.00 97 1006.7
20260902044112 51 292 0.0 0.0 0.00 0.00 0.00 97 1006.7
20260902044042 51 292 0.0 0.0 0.00 0.00 0.00 97 1006.9
20260902044013 51 292 0.0 0.0 0.00 0.00 0.00 96 1006.9
20260902043946 51 292 0.0 0.0 0.00 0.00 0.00 96 1006.9
20260902043912 51 292 0.0 0.0 0.00 0.00 0.00 96 1006.9
20260902043843 51 292 0.0 0.0 0.00 0.00 0.00 96 1006.9
20260902043813 51 292 0.0 0.0 0.00 0.00 0.00 96 1006.9
20260902043742 51 292 0.0 0.0 0.00 0.00 0.00 96 1006.9
20260902043712 51 292 0.0 0.0 0.00 0.00 0.00 96 1006.9
20260902043643 51 292 0.0 0.0 0.00 0.00 0.00 96 1006.9
20260902043512 51 292 0.0 0.0 0.00 0.00 0.00 96 1007.0
20260902043442 51 292 0.0 0.0 0.00 0.00 0.00 97 1007.0
20260902043412 51 292 0.0 0.0 0.00 0.00 0.00 97 1007.0
20260902043343 51 292 0.0 0.0 0.00 0.00 0.00 96 1007.0
20260902043312 51 292 0.0 0.0 0.00 0.00 0.00 96 1007.0
20260902043242 51 292 0.0 0.0 0.00 0.00 0.00 96 1007.0
20260902043213 51 292 0.0 0.0 0.00 0.00 0.00 96 1007.0
20260902043142 51 292 0.0 0.0 0.00 0.00 0.00 96 1007.0
20260902043112 51 292 0.0 0.0 0.00 0.00 0.00 96 1007.0
20260902042942 51 292 0.0 0.0 0.00 0.00 0.00 96 1006.7
20260902042913 51 292 0.0 0.0 0.00 0.00 0.00 96 1006.7
20260902042842 51 292 0.0 0.0 0.00 0.00 0.00 96 1006.7
20260902042812 51 292 0.0 0.0 0.00 0.00 0.00 96 1006.7
20260902042742 51 292 0.0 0.0 0.00 0.00 0.00 96 1006.7
20260902042712 51 292 0.0 0.0 0.00 0.00 0.00 96 1006.7
20260902042612 51 292 0.0 0.0 0.00 0.00 0.00 96 1006.7
20260902042542 51 292 0.0 0.0 0.00 0.00 0.00 96 1006.8
20260902042512 51 292 0.0 0.0 0.00 0.00 0.00 96 1006.8
20260902042442 51 292 0.0 0.0 0.00 0.00 0.00 96 1006.8
20260902042412 51 292 0.0 0.0 0.00 0.00 0.00 96 1006.8
20260902042345 51 292 0.0 0.0 0.00 0.00 0.00 96 1006.8
20260902042312 51 292 0.0 0.0 0.00 0.00 0.00 96 1006.8
20260902042242 51 292 0.0 0.0 0.00 0.00 0.00 96 1006.8
20260902042212 51 292 0.0 0.0 0.00 0.00 0.00 96 1006.8
20260902042142 51 292 0.0 0.0 0.00 0.00 0.00 96 1006.8
20260902042112 51 292 0.0 0.0 0.00 0.00 0.00 96 1006.8
20260902042043 51 292 0.0 0.0 0.00 0.00 0.00 96 1006.9
20260902042013 51 292 0.0 0.0 0.00 0.00 0.00 96 1006.9
20260902041942 51 292 0.0 0.0 0.00 0.00 0.00 96 1006.9
20260902041912 51 292 0.0 0.0 0.00 0.00 0.00 96 1006.9
20260902041842 51 292 0.0 0.0 0.00 0.00 0.00 96 1006.9
20260902041813 51 292 0.0 0.0 0.00 0.00 0.00 96 1006.9
20260902041742 51 292 0.0 0.0 0.00 0.00 0.00 96 1006.9
20260902041713 51 292 0.0 0.0 0.00 0.00 0.00 96 1006.9
20260902041642 51 292 0.0 0.0 0.00 0.00 0.00 96 1006.9
20260902041612 51 292 0.0 0.0 0.00 0.00 0.00 96 1006.9
20260902041543 51 292 0.0 0.0 0.00 0.00 0.00 96 1006.6
20260902041512 51 292 0.0 0.0 0.00 0.00 0.00 96 1006.6
20260902041443 51 292 0.0 0.0 0.00 0.00 0.00 96 1006.6
20260902041412 51 292 0.0 0.0 0.00 0.00 0.00 96 1006.6
20260902041342 51 292 0.0 0.0 0.00 0.00 0.00 96 1006.6
20260902041313 51 292 0.0 0.0 0.00 0.00 0.00 96 1006.6
20260902041244 51 292 0.0 0.0 0.00 0.00 0.00 96 1006.6
20260902041213 51 292 0.0 0.0 0.00 0.00 0.00 96 1006.6
20260902041143 51 292 0.0 0.0 0.00 0.00 0.00 96 1006.6
20260902041112 51 292 0.0 0.0 0.00 0.00 0.00 96 1006.6
20260902041042 51 292 0.0 0.0 0.00 0.00 0.00 96 1006.6
20260902041013 51 292 0.0 0.0 0.00 0.00 0.00 96 1006.6
20260902040942 51 292 0.0 0.0 0.00 0.00 0.00 96 1006.6
20260902040912 51 292 0.0 0.0 0.00 0.00 0.00 96 1006.6
20260902040843 51 292 0.0 0.0 0.00 0.00 0.00 97 1006.6
20260902040812 51 292 0.0 0.0 0.00 0.00 0.00 97 1006.6
20260902040746 51 292 0.0 0.0 0.00 0.00 0.00 97 1006.6
20260902040713 51 292 0.0 0.0 0.00 0.00 0.00 97 1006.6
20260902040642 51 292 0.0 0.0 0.00 0.00 0.00 96 1006.6
20260902040612 51 292 0.0 0.0 0.00 0.00 0.00 96 1006.6
20260902040542 51 292 0.0 0.0 0.00 0.00 0.00 96 1006.7
20260902040512 51 292 0.0 0.0 0.00 0.00 0.00 97 1006.7
20260902040442 51 292 0.0 0.0 0.00 0.00 0.00 97 1006.7
20260902040412 51 292 0.0 0.0 0.00 0.00 0.00 97 1006.7
20260902040343 51 292 0.0 0.0 0.00 0.00 0.00 97 1006.7
20260902040312 51 292 0.0 0.0 0.00 0.00 0.00 97 1006.7
20260902040244 51 292 0.0 0.0 0.00 0.00 0.00 96 1006.7
20260902040213 51 292 0.0 0.0 0.00 0.00 0.00 97 1006.7
20260902040142 51 292 0.0 0.0 0.00 0.00 0.00 97 1006.7
20260902040113 51 292 0.0 0.0 0.00 0.00 0.00 97 1006.7
20260902040042 51 292 0.0 0.0 0.00 0.00 0.00 97 1006.9
20260902040013 51 292 0.0 0.0 0.00 0.00 0.00 96 1006.9
20260902035942 51 292 0.0 0.0 0.00 0.00 0.00 97 1006.9
20260902035912 51 292 0.0 0.0 0.00 0.00 0.00 97 1006.9
20260902035842 51 292 0.0 0.0 0.00 0.00 0.00 96 1006.9
20260902035812 51 292 0.0 0.0 0.00 0.00 0.00 96 1006.9
20260902035742 51 292 0.0 0.0 0.00 0.00 0.00 96 1006.9
20260902035712 51 292 0.0 0.0 0.00 0.00 0.00 96 1006.9
20260902035642 51 292 0.0 0.0 0.00 0.00 0.00 96 1006.9
20260902035612 51 292 0.0 0.0 0.00 0.00 0.00 96 1006.9
20260902035542 51 292 0.0 0.0 0.00 0.00 0.00 96 1006.8
20260902035512 51 292 0.0 0.0 0.00 0.00 0.00 96 1006.8
20260902035442 51 292 0.0 0.0 0.00 0.00 0.00 96 1006.8
20260902035413 51 292 0.0 0.0 0.00 0.00 0.00 96 1006.8
20260902035312 51 292 0.0 0.0 0.00 0.00 0.00 96 1006.8
20260902035242 51 292 0.0 0.0 0.00 0.00 0.00 96 1006.8
20260902035213 51 292 0.0 0.0 0.00 0.00 0.00 96 1006.8
20260902035142 51 292 0.0 0.0 0.00 0.00 0.00 96 1006.8
20260902035112 51 292 0.0 0.0 0.00 0.00 0.00 96 1006.8
20260902035042 51 292 0.0 0.0 0.00 0.00 0.00 96 1006.6
20260902035013 51 292 0.0 0.0 0.00 0.00 0.00 96 1006.6
20260902034943 51 292 0.0 0.0 0.00 0.00 0.00 96 1006.6
20260902034913 51 292 0.0 0.0 0.00 0.00 0.00 96 1006.6
20260902034842 51 292 0.0 0.0 0.00 0.00 0.00 96 1006.6
20260902034812 51 292 0.0 0.0 0.00 0.00 0.00 96 1006.6
20260902034742 51 292 0.0 0.0 0.00 0.00 0.00 96 1006.6
20260902034712 51 292 0.0 0.0 0.00 0.00 0.00 96 1006.6
20260902034642 51 292 0.0 0.0 0.00 0.00 0.00 96 1006.6
20260902034612 51 292 0.0 0.0 0.00 0.00 0.00 96 1006.6
20260902034545 51 292 0.0 0.0 0.00 0.00 0.00 96 1006.8
20260902034512 51 292 0.0 0.0 0.00 0.00 0.00 96 1006.8
20260902034442 51 292 0.0 0.0 0.00 0.00 0.00 96 1006.8
20260902034412 51 292 0.0 0.0 0.00 0.00 0.00 96 1006.8
20260902034342 51 292 0.0 0.0 0.00 0.00 0.00 96 1006.8
20260902034313 51 292 0.0 0.0 0.00 0.00 0.00 96 1006.8
20260902034242 51 292 0.0 0.0 0.00 0.00 0.00 96 1006.8
20260902034212 51 292 0.0 0.0 0.00 0.00 0.00 96 1006.8
20260902034142 51 292 0.0 0.0 0.00 0.00 0.00 96 1006.8
20260902034112 51 292 0.0 0.0 0.00 0.00 0.00 96 1006.8
20260902034012 51 292 0.0 0.0 0.00 0.00 0.00 96 1007.0
20260902033942 51 292 0.0 0.0 0.00 0.00 0.00 96 1007.0
20260902033842 51 292 0.0 0.0 0.00 0.00 0.00 96 1007.0
20260902033812 51 292 0.0 0.0 0.00 0.00 0.00 96 1007.0
20260902033742 51 292 0.0 0.0 0.00 0.00 0.00 96 1007.0
20260902033712 51 292 0.0 0.0 0.00 0.00 0.00 96 1007.0
20260902033642 51 292 0.0 0.0 0.00 0.00 0.00 96 1007.0
20260902033612 51 292 0.0 0.0 0.00 0.00 0.00 96 1007.0
20260902033542 51 292 0.0 0.0 0.00 0.00 0.00 96 1007.1
20260902033412 51 292 0.0 0.0 0.00 0.00 0.00 96 1007.1
20260902033342 51 292 0.0 0.0 0.00 0.00 0.00 96 1007.1
20260902033312 52 292 0.0 0.0 0.00 0.00 0.00 96 1007.1
20260902033242 52 292 0.0 0.0 0.00 0.00 0.00 96 1007.1
20260902033213 52 292 0.0 0.0 0.00 0.00 0.00 96 1007.1
20260902033142 52 292 0.0 0.0 0.00 0.00 0.00 96 1007.1
20260902033042 52 292 0.0 0.0 0.00 0.00 0.00 96 1006.8
20260902033012 52 292 0.0 0.0 0.00 0.00 0.00 96 1006.8
20260902032943 52 292 0.0 0.0 0.00 0.00 0.00 96 1006.8
20260902032912 52 292 0.0 0.0 0.00 0.00 0.00 96 1006.8
20260902032842 52 292 0.0 0.0 0.00 0.00 0.00 96 1006.8
20260902032812 52 292 0.0 0.0 0.00 0.00 0.00 96 1006.8
20260902032742 52 292 0.0 0.0 0.00 0.00 0.00 96 1006.8
20260902032712 52 292 0.0 0.0 0.00 0.00 0.00 96 1006.8
20260902032642 52 292 0.0 0.0 0.00 0.00 0.00 96 1006.8
20260902032612 52 292 0.0 0.0 0.00 0.00 0.00 96 1006.8
20260902032542 52 292 0.0 0.0 0.00 0.00 0.00 96 1006.9
20260902032512 52 292 0.0 0.0 0.00 0.00 0.00 96 1006.9
20260902032442 52 292 0.0 0.0 0.00 0.00 0.00 96 1006.9
20260902032412 52 292 0.0 0.0 0.00 0.00 0.00 96 1006.9
20260902032342 52 292 0.0 0.0 0.00 0.00 0.00 96 1006.9
20260902032314 52 292 0.0 0.0 0.00 0.00 0.00 96 1006.9
20260902032242 52 292 0.0 0.0 0.00 0.00 0.00 96 1006.9
20260902032212 52 292 0.0 0.0 0.00 0.00 0.00 96 1006.9
20260902032142 52 292 0.0 0.0 0.00 0.00 0.00 96 1006.9
20260902032112 52 292 0.0 0.0 0.00 0.00 0.00 96 1006.9
20260902032042 52 292 0.0 0.0 0.00 0.00 0.00 96 1006.8
20260902032012 52 292 0.0 0.0 0.00 0.00 0.00 96 1006.8
20260902031942 52 292 0.0 0.0 0.00 0.00 0.00 96 1006.8
20260902031912 52 292 0.0 0.0 0.00 0.00 0.00 96 1006.8
20260902031842 52 292 0.0 0.0 0.00 0.00 0.00 96 1006.8
20260902031812 52 292 0.0 0.0 0.00 0.00 0.00 96 1006.8
20260902031742 52 292 0.0 0.0 0.00 0.00 0.00 96 1006.8
20260902031642 52 292 0.0 0.0 0.00 0.00 0.00 96 1006.8
20260902031612 52 292 0.0 0.0 0.00 0.00 0.00 96 1006.8
20260902031542 52 292 0.0 0.0 0.00 0.00 0.00 96 1006.9
20260902031512 52 292 0.0 0.0 0.00 0.00 0.00 96 1006.9
20260902031412 52 292 0.0 0.0 0.00 0.00 0.00 96 1006.9
20260902031341 52 292 0.0 0.0 0.00 0.00 0.00 96 1006.9
20260902031312 52 292 0.0 0.0 0.00 0.00 0.00 95 1006.9
20260902031242 52 292 0.0 0.0 0.00 0.00 0.00 95 1006.9
20260902031212 52 292 0.0 0.0 0.00 0.00 0.00 95 1006.9
20260902031142 52 292 0.0 0.0 0.00 0.00 0.00 96 1006.9
20260902031112 52 292 0.0 0.0 0.00 0.00 0.00 95 1006.9
20260902031042 52 292 0.0 0.0 0.00 0.00 0.00 96 1006.9
20260902031012 52 292 0.0 0.0 0.00 0.00 0.00 95 1006.9
20260902030942 52 292 0.0 0.0 0.00 0.00 0.00 95 1006.9
20260902030912 52 292 0.0 0.0 0.00 0.00 0.00 96 1006.9
20260902030842 52 292 0.0 0.0 0.00 0.00 0.00 96 1006.9
20260902030811 52 292 0.0 0.0 0.00 0.00 0.00 95 1006.9
20260902030742 52 292 0.0 0.0 0.00 0.00 0.00 95 1006.9
20260902030711 52 292 0.0 0.0 0.00 0.00 0.00 95 1006.9
20260902030642 52 292 0.0 0.0 0.00 0.00 0.00 95 1006.9
20260902030612 52 292 0.0 0.0 0.00 0.00 0.00 95 1006.9
20260902030541 52 292 0.0 0.0 0.00 0.00 0.00 95 1007.1
20260902030443 52 292 0.0 0.0 0.00 0.00 0.00 95 1007.1
20260902030412 52 292 0.0 0.0 0.00 0.00 0.00 95 1007.1
20260902030341 52 292 0.0 0.0 0.00 0.00 0.00 95 1007.1
20260902030313 52 292 0.0 0.0 0.00 0.00 0.00 95 1007.1
20260902030242 52 292 0.0 0.0 0.00 0.00 0.00 95 1007.1
20260902030215 52 292 0.0 0.0 0.00 0.00 0.00 95 1007.1
20260902030142 52 292 0.0 0.0 0.00 0.00 0.00 95 1007.1
20260902030113 52 292 0.0 0.0 0.00 0.00 0.00 95 1007.1
20260902030042 52 292 0.0 0.0 0.00 0.00 0.00 95 1007.1
20260902030015 52 292 0.0 0.0 0.00 0.00 0.00 95 1007.1
20260902025941 52 292 0.0 0.0 0.00 0.00 0.00 95 1007.1
20260902025912 52 292 0.0 0.0 0.00 0.00 0.00 95 1007.1
20260902025842 52 292 0.0 0.0 0.00 0.00 0.00 95 1007.1
20260902025811 52 292 0.0 0.0 0.00 0.00 0.00 95 1007.1
20260902025741 52 292 0.0 0.0 0.00 0.00 0.00 95 1007.1
20260902025712 52 292 0.0 0.0 0.00 0.00 0.00 95 1007.1
20260902025641 52 292 0.0 0.0 0.00 0.00 0.00 95 1007.1
20260902025611 53 292 0.0 0.0 0.00 0.00 0.00 96 1007.1
20260902025541 53 292 0.0 0.0 0.00 0.00 0.00 96 1007.1
20260902025512 53 292 0.0 0.0 0.00 0.00 0.00 96 1007.1
20260902025442 53 292 0.0 0.0 0.00 0.00 0.00 96 1007.1
20260902025411 53 292 0.0 0.0 0.00 0.00 0.00 96 1007.1
20260902025312 53 292 0.0 0.0 0.00 0.00 0.00 96 1007.1
20260902025242 53 292 0.0 0.0 0.00 0.00 0.00 96 1007.1
20260902025212 53 292 0.0 0.0 0.00 0.00 0.00 96 1007.1
20260902025142 53 292 0.0 0.0 0.00 0.00 0.00 96 1007.1
20260902025111 53 292 0.0 0.0 0.00 0.00 0.00 96 1007.1
20260902025041 53 292 0.0 0.0 0.00 0.00 0.00 96 1007.1
20260902025014 53 292 0.0 0.0 0.00 0.00 0.00 96 1007.1
20260902024939 53 292 0.0 0.0 0.00 0.00 0.00 96 1007.1
20260902024843 53 292 0.0 0.0 0.00 0.00 0.00 96 1007.1
20260902024811 53 292 0.0 0.0 0.00 0.00 0.00 96 1007.1
20260902024711 53 292 0.0 0.0 0.00 0.00 0.00 96 1007.1
20260902024642 53 292 0.0 0.0 0.00 0.00 0.00 96 1007.1
20260902024612 53 292 0.0 0.0 0.00 0.00 0.00 96 1007.1
20260902024542 53 292 0.0 0.0 0.00 0.00 0.00 96 1007.1
20260902024512 53 292 0.0 0.0 0.00 0.00 0.00 96 1007.1
20260902024443 53 292 0.0 0.0 0.00 0.00 0.00 96 1007.1
20260902024414 53 292 0.0 0.0 0.00 0.00 0.00 96 1007.1
20260902024341 53 292 0.0 0.0 0.00 0.00 0.00 96 1007.1
20260902024312 53 292 0.0 0.0 0.00 0.00 0.00 96 1007.1
20260902024244 53 292 0.0 0.0 0.00 0.00 0.00 96 1007.1
20260902024212 53 292 0.0 0.0 0.00 0.00 0.00 96 1007.1
20260902024143 53 292 0.0 0.0 0.00 0.00 0.00 96 1007.1
20260902024117 53 292 0.0 0.0 0.00 0.00 0.00 96 1007.1
20260902024042 53 292 0.0 0.0 0.00 0.00 0.00 96 1007.2
20260902024012 53 292 0.0 0.0 0.00 0.00 0.00 96 1007.2
20260902023916 53 292 0.0 0.0 0.00 0.00 0.00 96 1007.2
20260902023841 53 292 0.0 0.0 0.00 0.00 0.00 96 1007.2
20260902023812 53 292 0.0 0.0 0.00 0.00 0.00 96 1007.2
20260902023741 53 292 0.0 0.0 0.00 0.00 0.00 96 1007.2
20260902023714 53 292 0.0 0.0 0.00 0.00 0.00 96 1007.2
20260902023646 53 292 0.0 0.0 0.00 0.00 0.00 96 1007.2
20260902023612 53 292 0.0 0.0 0.00 0.00 0.00 96 1007.2
20260902023553 53 292 0.0 0.0 0.00 0.00 0.00 96 1007.3
20260902023522 53 292 0.0 0.0 0.00 0.00 0.00 96 1007.3
20260902023442 53 292 0.0 0.0 0.00 0.00 0.00 96 1007.3
20260902023412 53 292 0.0 0.0 0.00 0.00 0.00 96 1007.3
20260902023342 53 292 0.0 0.0 0.00 0.00 0.00 96 1007.3
20260902023311 53 292 0.0 0.0 0.00 0.00 0.00 96 1007.3
20260902023242 53 292 0.0 0.0 0.00 0.00 0.00 96 1007.3
20260902023211 53 292 0.0 0.0 0.00 0.00 0.00 96 1007.3
20260902023111 53 292 0.0 0.0 0.00 0.00 0.00 96 1007.3
20260902023041 53 292 0.0 0.0 0.00 0.00 0.00 96 1007.2
20260902023019 53 292 0.0 0.0 0.00 0.00 0.00 96 1007.2
20260902022943 53 292 0.0 0.0 0.00 0.00 0.00 96 1007.2
20260902022919 53 292 0.0 0.0 0.00 0.00 0.00 96 1007.2
20260902022841 53 292 0.0 0.0 0.00 0.00 0.00 96 1007.2
20260902022741 53 292 0.0 0.0 0.00 0.00 0.00 96 1007.2
20260902022711 53 292 0.0 0.0 0.00 0.00 0.00 96 1007.2
20260902022642 53 292 0.0 0.0 0.00 0.00 0.00 96 1007.2
20260902022613 53 292 0.0 0.0 0.00 0.00 0.00 95 1007.2
20260902022544 53 292 0.0 0.0 0.00 0.00 0.00 95 1007.1
20260902022511 53 292 0.0 0.0 0.00 0.00 0.00 96 1007.1
20260902022448 53 292 0.0 0.0 0.00 0.00 0.00 96 1007.1
20260902022412 53 292 0.0 0.0 0.00 0.00 0.00 96 1007.1
20260902022342 53 292 0.0 0.0 0.00 0.00 0.00 95 1007.1
20260902022313 53 292 0.0 0.0 0.00 0.00 0.00 95 1007.1
20260902022242 53 292 0.0 0.0 0.00 0.00 0.00 95 1007.1
20260902022212 53 292 0.0 0.0 0.00 0.00 0.00 95 1007.1
20260902022142 53 292 0.0 0.0 0.00 0.00 0.00 95 1007.1
20260902022111 53 292 0.0 0.0 0.00 0.00 0.00 95 1007.1
20260902022044 53 292 0.0 0.0 0.00 0.00 0.00 95 1007.1
20260902022013 53 292 0.0 0.0 0.00 0.00 0.00 95 1007.1
20260902021942 53 292 0.0 0.0 0.00 0.00 0.00 95 1007.1
20260902021914 53 292 0.0 0.0 0.00 0.00 0.00 95 1007.1
20260902021844 53 292 0.0 0.0 0.00 0.00 0.00 95 1007.1
20260902021814 53 292 0.0 0.0 0.00 0.00 0.00 95 1007.1
20260902021745 53 292 0.0 0.0 0.00 0.00 0.00 95 1007.1
20260902021717 53 292 0.0 0.0 0.00 0.00 0.00 95 1007.1
20260902021642 53 292 0.0 0.0 0.00 0.00 0.00 95 1007.1
20260902021612 53 292 0.0 0.0 0.00 0.00 0.00 95 1007.1
20260902021542 53 292 0.0 0.0 0.00 0.00 0.00 95 1007.2
20260902021513 53 292 0.0 0.0 0.00 0.00 0.00 96 1007.2
20260902021442 53 292 0.0 0.0 0.00 0.00 0.00 95 1007.2
20260902021411 53 292 0.0 0.0 0.00 0.00 0.00 96 1007.2
20260902021342 53 292 0.0 0.0 0.00 0.00 0.00 95 1007.2
20260902021312 53 292 0.0 0.0 0.00 0.00 0.00 95 1007.2
20260902021241 53 292 0.0 0.0 0.00 0.00 0.00 95 1007.2
20260902021213 53 292 0.0 0.0 0.00 0.00 0.00 95 1007.2
20260902021142 53 292 0.0 0.0 0.00 0.00 0.00 95 1007.2
20260902021043 53 292 0.0 0.0 0.00 0.00 0.00 95 1007.2
20260902021012 53 292 0.0 0.0 0.00 0.00 0.00 95 1007.2
20260902020944 53 292 0.0 0.0 0.00 0.00 0.00 95 1007.2
20260902020912 53 292 0.0 0.0 0.00 0.00 0.00 95 1007.2
20260902020843 53 292 0.0 0.0 0.00 0.00 0.00 95 1007.2
20260902020814 53 292 0.0 0.0 0.00 0.00 0.00 95 1007.2
20260902020741 53 292 0.0 0.0 0.00 0.00 0.00 95 1007.2
20260902020711 53 292 0.0 0.0 0.00 0.00 0.00 95 1007.2
20260902020643 53 292 0.0 0.0 0.00 0.00 0.00 95 1007.2
20260902020611 53 292 0.0 0.0 0.00 0.00 0.00 95 1007.2
20260902020512 53 292 0.0 0.0 0.00 0.00 0.00 95 1007.4
20260902020441 53 292 0.0 0.0 0.00 0.00 0.00 95 1007.4
20260902020342 53 292 0.0 0.0 0.00 0.00 0.00 95 1007.4
20260902020312 53 292 0.0 0.0 0.00 0.00 0.00 95 1007.4
20260902020241 53 292 0.0 0.0 0.00 0.00 0.00 95 1007.4
20260902020214 53 292 0.0 0.0 0.00 0.00 0.00 95 1007.4
20260902020141 53 292 0.0 0.0 0.00 0.00 0.00 95 1007.4
20260902020116 53 292 0.0 0.0 0.00 0.00 0.00 95 1007.4
20260902020041 53 292 0.0 0.0 0.00 0.00 0.00 95 1007.2
20260902020011 53 292 0.0 0.0 0.00 0.00 0.00 95 1007.2
20260902015941 53 292 0.0 0.0 0.00 0.00 0.00 95 1007.2
20260902015911 53 292 0.0 0.0 0.00 0.00 0.00 95 1007.2
20260902015841 53 292 0.0 0.0 0.00 0.00 0.00 95 1007.2
20260902015741 53 292 0.0 0.0 0.00 0.00 0.00 95 1007.2
20260902015711 53 292 0.0 0.0 0.00 0.00 0.00 95 1007.2
20260902015641 53 292 0.0 0.0 0.00 0.00 0.00 95 1007.2
20260902015611 53 292 0.0 0.0 0.00 0.00 0.00 95 1007.2
20260902015541 53 292 0.0 0.0 0.00 0.00 0.00 95 1007.2
20260902015511 53 292 0.0 0.0 0.00 0.00 0.00 95 1007.2
20260902015441 53 292 0.0 0.0 0.00 0.00 0.00 95 1007.2
20260902015411 53 292 0.0 0.0 0.00 0.00 0.00 95 1007.2
20260902015341 53 292 0.0 0.0 0.00 0.00 0.00 95 1007.2
20260902015311 53 292 0.0 0.0 0.00 0.00 0.00 95 1007.2
20260902015212 53 292 0.0 0.0 0.00 0.00 0.00 95 1007.2
20260902015141 53 292 0.0 0.0 0.00 0.00 0.00 95 1007.2
20260902015112 53 292 0.0 0.0 0.00 0.00 0.00 95 1007.2
20260902015042 53 292 0.0 0.0 0.00 0.00 0.00 95 1007.1
20260902015011 53 292 0.0 0.0 0.00 0.00 0.00 95 1007.1
20260902014941 53 292 0.0 0.0 0.00 0.00 0.00 95 1007.1
20260902014911 53 292 0.0 0.0 0.00 0.00 0.00 95 1007.1
20260902014841 53 292 0.0 0.0 0.00 0.00 0.00 95 1007.1
20260902014811 53 292 0.0 0.0 0.00 0.00 0.00 95 1007.1
20260902014740 53 292 0.0 0.0 0.00 0.00 0.00 95 1007.1
20260902014711 53 292 0.0 0.0 0.00 0.00 0.00 95 1007.1
20260902014641 53 292 0.0 0.0 0.00 0.00 0.00 95 1007.1
20260902014541 53 292 0.0 0.0 0.00 0.00 0.00 95 1007.3
20260902014512 53 292 0.0 0.0 0.00 0.00 0.00 95 1007.3
20260902014441 53 292 0.0 0.0 0.00 0.00 0.00 95 1007.3
20260902014412 53 292 0.0 0.0 0.00 0.00 0.00 95 1007.3
20260902014341 53 292 0.0 0.0 0.00 0.00 0.00 95 1007.3
20260902014312 53 292 0.0 0.0 0.00 0.00 0.00 95 1007.3
20260902014241 53 292 0.0 0.0 0.00 0.00 0.00 95 1007.3
20260902014211 53 292 0.0 0.0 0.00 0.00 0.00 95 1007.3
20260902014141 53 292 0.0 0.0 0.00 0.00 0.00 95 1007.3
20260902014041 53 292 0.0 0.0 0.00 0.00 0.00 95 1007.3
20260902014011 53 292 0.0 0.0 0.00 0.00 0.00 95 1007.3
20260902013941 53 292 0.0 0.0 0.00 0.00 0.00 95 1007.3
20260902013912 53 292 0.0 0.0 0.00 0.00 0.00 95 1007.3
20260902013841 53 292 0.0 0.0 0.00 0.00 0.00 95 1007.3
20260902013812 53 292 0.0 0.0 0.00 0.00 0.00 95 1007.3
20260902013742 53 292 0.0 0.0 0.00 0.00 0.00 95 1007.3
20260902013711 53 292 0.0 0.0 0.00 0.00 0.00 95 1007.3
20260902013641 54 292 0.0 0.0 0.00 0.00 0.00 95 1007.3
20260902013611 54 292 0.0 0.0 0.00 0.00 0.00 95 1007.3
20260902013541 54 292 0.0 0.0 0.00 0.00 0.00 95 1007.2
20260902013511 54 292 0.0 0.0 0.00 0.00 0.00 95 1007.2
20260902013341 54 292 0.0 0.0 0.00 0.00 0.00 95 1007.2
20260902013311 54 292 0.0 0.0 0.00 0.00 0.00 95 1007.2
20260902013241 54 292 0.0 0.0 0.00 0.00 0.00 95 1007.2
20260902013211 54 292 0.0 0.0 0.00 0.00 0.00 95 1007.2
20260902013141 53 292 0.0 0.0 0.00 0.00 0.00 95 1007.2
20260902013111 53 292 0.0 0.0 0.00 0.00 0.00 95 1007.2
20260902013041 53 292 0.0 0.0 0.00 0.00 0.00 95 1007.4
20260902013011 53 292 0.0 0.0 0.00 0.00 0.00 95 1007.4
20260902012941 53 292 0.0 0.0 0.00 0.00 0.00 95 1007.4
20260902012841 53 292 0.0 0.0 0.00 0.00 0.00 95 1007.4
20260902012811 53 292 0.0 0.0 0.00 0.00 0.00 95 1007.4
20260902012741 53 292 0.0 0.0 0.00 0.00 0.00 95 1007.4
20260902012711 53 292 0.0 0.0 0.00 0.00 0.00 95 1007.4
20260902012611 53 292 0.0 0.0 0.00 0.00 0.00 95 1007.4
20260902012541 53 292 0.0 0.0 0.00 0.00 0.00 95 1007.4
20260902012511 53 292 0.0 0.0 0.00 0.00 0.00 95 1007.4
20260902012441 53 292 0.0 0.0 0.00 0.00 0.00 95 1007.4
20260902012411 54 292 0.0 0.0 0.00 0.00 0.00 95 1007.4
20260902012341 54 292 0.0 0.0 0.00 0.00 0.00 95 1007.4
20260902012311 54 292 0.0 0.0 0.00 0.00 0.00 95 1007.4
20260902012240 54 292 0.0 0.0 0.00 0.00 0.00 95 1007.4
20260902012210 54 292 0.0 0.0 0.00 0.00 0.00 95 1007.4
20260902012140 54 292 0.0 0.0 0.00 0.00 0.00 95 1007.4
20260902012111 54 292 0.0 0.0 0.00 0.00 0.00 95 1007.4
20260902012041 54 292 0.0 0.0 0.00 0.00 0.00 95 1007.3
20260902012011 54 292 0.0 0.0 0.00 0.00 0.00 95 1007.3
20260902011940 54 292 0.0 0.0 0.00 0.00 0.00 95 1007.3
20260902011911 54 292 0.0 0.0 0.00 0.00 0.00 95 1007.3
20260902011840 54 292 0.0 0.0 0.00 0.00 0.00 95 1007.3
20260902011811 54 292 0.0 0.0 0.00 0.00 0.00 95 1007.3
20260902011741 54 292 0.0 0.0 0.00 0.00 0.00 95 1007.3
20260902011711 54 292 0.0 0.0 0.00 0.00 0.00 95 1007.3
20260902011640 54 292 0.0 0.0 0.00 0.00 0.00 95 1007.3
20260902011611 54 292 0.0 0.0 0.00 0.00 0.00 95 1007.3
20260902011541 54 292 0.0 0.0 0.00 0.00 0.00 95 1007.3
20260902011510 54 292 0.0 0.0 0.00 0.00 0.00 95 1007.3
20260902011440 54 292 0.0 0.0 0.00 0.00 0.00 95 1007.3
20260902011410 54 292 0.0 0.0 0.00 0.00 0.00 95 1007.3
20260902011341 54 292 0.0 0.0 0.00 0.00 0.00 95 1007.3
20260902011311 54 292 0.0 0.0 0.00 0.00 0.00 95 1007.3
20260902011240 54 292 0.0 0.0 0.00 0.00 0.00 95 1007.3
20260902011212 54 292 0.0 0.0 0.00 0.00 0.00 95 1007.3
20260902011140 54 292 0.0 0.0 0.00 0.00 0.00 95 1007.3
20260902011110 54 292 0.0 0.0 0.00 0.00 0.00 95 1007.3
20260902011041 54 292 0.0 0.0 0.00 0.00 0.00 95 1007.2
20260902011011 54 292 0.0 0.0 0.00 0.00 0.00 95 1007.2
20260902010940 54 292 0.0 0.0 0.00 0.00 0.00 95 1007.2
20260902010910 54 292 0.0 0.0 0.00 0.00 0.00 95 1007.2
20260902010840 54 292 0.0 0.0 0.00 0.00 0.00 95 1007.2
20260902010810 54 292 0.0 0.0 0.00 0.00 0.00 95 1007.2
20260902010742 54 292 0.0 0.0 0.00 0.00 0.00 95 1007.2
20260902010711 54 292 0.0 0.0 0.00 0.00 0.00 95 1007.2
20260902010640 54 292 0.0 0.0 0.00 0.00 0.00 95 1007.2
20260902010610 54 292 0.0 0.0 0.00 0.00 0.00 95 1007.2
20260902010540 54 292 0.0 0.0 0.00 0.00 0.00 95 1007.2
20260902010510 54 292 0.0 0.0 0.00 0.00 0.00 95 1007.2
20260902010442 54 292 0.0 0.0 0.00 0.00 0.00 95 1007.2
20260902010411 54 292 0.0 0.0 0.00 0.00 0.00 95 1007.2
20260902010341 54 292 0.0 0.0 0.00 0.00 0.00 95 1007.2
20260902010310 54 292 0.0 0.0 0.00 0.00 0.00 95 1007.2
20260902010240 54 292 0.0 0.0 0.00 0.00 0.00 95 1007.2
20260902010210 54 292 0.0 0.0 0.00 0.00 0.00 95 1007.2
20260902010141 54 292 0.0 0.0 0.00 0.00 0.00 95 1007.2
20260902010111 54 292 0.0 0.0 0.00 0.00 0.00 95 1007.2
20260902010040 54 292 0.0 0.0 0.00 0.00 0.00 95 1007.3
20260902010013 54 292 0.0 0.0 0.00 0.00 0.00 95 1007.3
20260902005948 54 292 0.0 0.0 0.00 0.00 0.00 95 1007.3
20260902005911 54 292 0.0 0.0 0.00 0.00 0.00 95 1007.3
20260902005841 54 292 0.0 0.0 0.00 0.00 0.00 95 1007.3
20260902005811 54 292 0.0 0.0 0.00 0.00 0.00 95 1007.3
20260902005740 54 292 0.0 0.0 0.00 0.00 0.00 95 1007.3
20260902005710 54 292 0.0 0.0 0.00 0.00 0.00 95 1007.3
20260902005610 54 292 0.0 0.0 0.00 0.00 0.00 95 1007.3
20260902005540 54 292 0.0 0.0 0.00 0.00 0.00 95 1007.2
20260902005510 54 292 0.0 0.0 0.00 0.00 0.00 95 1007.2
20260902005440 54 292 0.0 0.0 0.00 0.00 0.00 95 1007.2
20260902005410 54 292 0.0 0.0 0.00 0.00 0.00 94 1007.2
20260902005340 54 292 0.0 0.0 0.00 0.00 0.00 94 1007.2
20260902005240 54 292 0.0 0.0 0.00 0.00 0.00 94 1007.2
20260902005210 54 292 0.0 0.0 0.00 0.00 0.00 94 1007.2
20260902005143 54 292 0.0 0.0 0.00 0.00 0.00 94 1007.2
20260902005110 54 292 0.0 0.0 0.00 0.00 0.00 94 1007.2
20260902005041 54 292 0.0 0.0 0.00 0.00 0.00 94 1007.2
20260902005011 54 292 0.0 0.0 0.00 0.00 0.00 94 1007.2
20260902004940 54 292 0.0 0.0 0.00 0.00 0.00 94 1007.2
20260902004840 54 292 0.0 0.0 0.00 0.00 0.00 94 1007.2
20260902004811 54 292 0.0 0.0 0.00 0.00 0.00 94 1007.2
20260902004741 55 292 0.0 0.0 0.00 0.00 0.00 94 1007.2
20260902004711 55 292 0.0 0.0 0.00 0.00 0.00 94 1007.2
20260902004641 55 292 0.0 0.0 0.00 0.00 0.00 94 1007.2
20260902004542 55 292 0.0 0.0 0.00 0.00 0.00 94 1007.2
20260902004513 55 292 0.0 0.0 0.00 0.00 0.00 94 1007.2
20260902004441 55 292 0.0 0.0 0.00 0.00 0.00 94 1007.2
20260902004410 55 292 0.0 0.0 0.00 0.00 0.00 94 1007.2
20260902004341 55 292 0.0 0.0 0.00 0.00 0.00 94 1007.2
20260902004314 55 292 0.0 0.0 0.00 0.00 0.00 94 1007.2
20260902004240 55 292 0.0 0.0 0.00 0.00 0.00 94 1007.2
20260902004211 55 292 0.0 0.0 0.00 0.00 0.00 94 1007.2
20260902004140 55 292 0.0 0.0 0.00 0.00 0.00 94 1007.2
20260902004110 55 292 0.0 0.0 0.00 0.00 0.00 94 1007.2
20260902004011 55 292 0.0 0.0 0.00 0.00 0.00 94 1007.2
20260902003940 55 292 0.0 0.0 0.00 0.00 0.00 94 1007.2
20260902003911 55 292 0.0 0.0 0.00 0.00 0.00 94 1007.2
20260902003840 55 292 0.0 0.0 0.00 0.00 0.00 94 1007.2
20260902003811 55 292 0.0 0.0 0.00 0.00 0.00 94 1007.2
20260902003640 55 292 0.0 0.0 0.00 0.00 0.00 94 1007.2
20260902003541 55 292 0.0 0.0 0.00 0.00 0.00 94 1007.1
20260902003510 55 292 0.0 0.0 0.00 0.00 0.00 94 1007.1
20260902003443 55 292 0.0 0.0 0.00 0.00 0.00 94 1007.1
20260902003411 55 292 0.0 0.0 0.00 0.00 0.00 94 1007.1
20260902003340 55 292 0.0 0.0 0.00 0.00 0.00 94 1007.1
20260902003311 55 292 0.0 0.0 0.00 0.00 0.00 94 1007.1
20260902003240 55 292 0.0 0.0 0.00 0.00 0.00 94 1007.1
20260902003210 55 292 0.0 0.0 0.00 0.00 0.00 94 1007.1
20260902003141 55 292 0.0 0.0 0.00 0.00 0.00 94 1007.1
20260902003110 55 292 0.0 0.0 0.00 0.00 0.00 94 1007.1
20260902003040 55 292 0.0 0.0 0.00 0.00 0.00 94 1007.3
20260902003010 55 292 0.0 0.0 0.00 0.00 0.00 94 1007.3
20260902002941 55 292 0.0 0.0 0.00 0.00 0.00 94 1007.3
20260902002910 55 292 0.0 0.0 0.00 0.00 0.00 93 1007.3
20260902002840 55 292 0.0 0.0 0.00 0.00 0.00 93 1007.3
20260902002810 55 292 0.0 0.0 0.00 0.00 0.00 93 1007.3
20260902002740 55 292 0.0 0.0 0.00 0.00 0.00 93 1007.3
20260902002710 55 292 0.0 0.0 0.00 0.00 0.00 93 1007.3
20260902002641 55 292 0.0 0.0 0.00 0.00 0.00 93 1007.3
20260902002614 55 292 0.0 0.0 0.00 0.00 0.00 93 1007.3
20260902002541 55 292 0.0 0.0 0.00 0.00 0.00 93 1007.1
20260902002510 55 292 0.0 0.0 0.00 0.00 0.00 93 1007.1
20260902002440 55 292 0.0 0.0 0.00 0.00 0.00 93 1007.1
20260902002410 55 292 0.0 0.0 0.00 0.00 0.00 93 1007.1
20260902002340 55 292 0.0 0.0 0.00 0.00 0.00 93 1007.1
20260902002310 55 292 0.0 0.0 0.00 0.00 0.00 93 1007.1
20260902002240 55 292 0.0 0.0 0.00 0.00 0.00 93 1007.1
20260902002140 55 292 0.0 0.0 0.00 0.00 0.00 94 1007.1
20260902002110 55 292 0.0 0.0 0.00 0.00 0.00 94 1007.1
20260902002010 55 292 0.0 0.0 0.00 0.00 0.00 94 1007.2
20260902001940 55 292 0.0 0.0 0.00 0.00 0.00 94 1007.2
20260902001910 55 292 0.0 0.0 0.00 0.00 0.00 94 1007.2
20260902001840 55 292 0.0 0.0 0.00 0.00 0.00 94 1007.2
20260902001811 55 292 0.0 0.0 0.00 0.00 0.00 94 1007.2
20260902001742 55 292 0.0 0.0 0.00 0.00 0.00 94 1007.2
20260902001710 55 292 0.0 0.0 0.00 0.00 0.00 94 1007.2
20260902001641 55 292 0.0 0.0 0.00 0.00 0.00 94 1007.2
20260902001610 55 292 0.0 0.0 0.00 0.00 0.00 94 1007.2
20260902001540 55 292 0.0 0.0 0.00 0.00 0.00 94 1007.3
20260902001510 55 292 0.0 0.0 0.00 0.00 0.00 94 1007.3
20260902001440 55 292 0.0 0.0 0.00 0.00 0.00 94 1007.3
20260902001411 55 292 0.0 0.0 0.00 0.00 0.00 94 1007.3
20260902001341 55 292 0.0 0.0 0.00 0.00 0.00 94 1007.3
20260902001311 55 292 0.0 0.0 0.00 0.00 0.00 94 1007.3
20260902001240 55 292 0.0 0.0 0.00 0.00 0.00 94 1007.3
20260902001141 55 292 0.0 0.0 0.00 0.00 0.00 94 1007.3
20260902001110 55 292 0.0 0.0 0.00 0.00 0.00 94 1007.3
20260902001040 55 292 0.0 0.0 0.00 0.00 0.00 94 1007.3
20260902001010 55 292 0.0 0.0 0.00 0.00 0.00 94 1007.3
20260902000940 55 292 0.0 0.0 0.00 0.00 0.00 94 1007.3
20260902000910 55 292 0.0 0.0 0.00 0.00 0.00 94 1007.3
20260902000840 55 292 0.0 0.0 0.00 0.00 0.00 94 1007.3
20260902000811 55 292 0.0 0.0 0.00 0.00 0.00 94 1007.3
20260902000741 55 292 0.0 0.0 0.00 0.00 0.00 94 1007.3
20260902000710 55 292 0.0 0.0 0.00 0.00 0.00 94 1007.3
20260902000640 55 292 0.0 0.0 0.00 0.00 0.00 94 1007.3
20260902000610 55 292 0.0 0.0 0.00 0.00 0.00 94 1007.3
20260902000540 55 292 0.0 0.0 0.00 0.00 0.00 94 1007.3
20260902000510 55 292 0.0 0.0 0.00 0.00 0.00 94 1007.3
20260902000440 55 292 0.0 0.0 0.00 0.00 0.00 94 1007.3
20260902000411 55 292 0.0 0.0 0.00 0.00 0.00 94 1007.3
20260902000340 55 292 0.0 0.0 0.00 0.00 0.00 94 1007.3
20260902000312 55 292 0.0 0.0 0.00 0.00 0.00 94 1007.3
20260902000241 55 292 0.0 0.0 0.00 0.00 0.00 94 1007.3
20260902000211 55 292 0.0 0.0 0.00 0.00 0.00 94 1007.3
20260902000144 55 292 0.0 0.0 0.00 0.00 0.00 94 1007.3
20260902000110 56 292 0.0 0.0 0.00 0.00 0.00 94 1007.3
20260902000040 56 292 0.0 0.0 0.00 0.00 0.00 94 1007.3
20260901235940 56 292 0.0 0.0 0.00 0.00 0.00 94 1007.3
20260901235910 56 292 0.0 0.0 0.00 0.00 0.00 94 1007.3
20260901235840 56 292 0.0 0.0 0.00 0.00 0.00 94 1007.3
20260901235810 56 292 0.0 0.0 0.00 0.00 0.00 94 1007.3
20260901235740 56 292 0.0 0.0 0.00 0.00 0.00 93 1007.3
20260901235710 56 292 0.0 0.0 0.00 0.00 0.00 93 1007.3
20260901235640 56 292 0.0 0.0 0.00 0.00 0.00 93 1007.3
20260901235610 56 292 0.0 0.0 0.00 0.00 0.00 93 1007.3
20260901235541 56 292 0.0 0.0 0.00 0.00 0.00 93 1007.3
20260901235510 56 292 0.0 0.0 0.00 0.00 0.00 93 1007.3
20260901235440 56 292 0.0 0.0 0.00 0.00 0.00 93 1007.3
20260901235410 56 292 0.0 0.0 0.00 0.00 0.00 93 1007.3
20260901235340 56 292 0.0 0.0 0.00 0.00 0.00 93 1007.3
20260901235310 56 292 0.0 0.0 0.00 0.00 0.00 93 1007.3
20260901235240 56 292 0.0 0.0 0.00 0.00 0.00 93 1007.3
20260901235210 56 292 0.0 0.0 0.00 0.00 0.00 94 1007.3
20260901235140 56 292 0.0 0.0 0.00 0.00 0.00 93 1007.3
20260901235110 56 292 0.0 0.0 0.00 0.00 0.00 93 1007.3
20260901234940 56 292 0.0 0.0 0.00 0.00 0.00 93 1007.3
20260901234910 56 292 0.0 0.0 0.00 0.00 0.00 93 1007.3
20260901234843 56 292 0.0 0.0 0.00 0.00 0.00 93 1007.3
20260901234840 56 292 0.0 0.0 0.00 0.00 0.00 93 1007.3
20260901234813 56 292 0.0 0.0 0.00 0.00 0.00 93 1007.3
20260901234811 56 292 0.0 0.0 0.00 0.00 0.00 93 1007.3
20260901234640 56 292 0.0 0.0 0.00 0.00 0.00 93 1007.3
20260901234610 56 292 0.0 0.0 0.00 0.00 0.00 93 1007.3
20260901234540 56 292 0.0 0.0 0.00 0.00 0.00 93 1007.3
20260901234510 56 292 0.0 0.0 0.00 0.00 0.00 93 1007.3
20260901234440 56 292 0.0 0.0 0.00 0.00 0.00 93 1007.3
20260901234410 56 292 0.0 0.0 0.00 0.00 0.00 93 1007.3
20260901234340 56 292 0.0 0.0 0.00 0.00 0.00 93 1007.3
20260901234310 56 292 0.0 0.0 0.00 0.00 0.00 93 1007.3
20260901234240 56 292 0.0 0.0 0.00 0.00 0.00 93 1007.3
20260901234210 56 292 0.0 0.0 0.00 0.00 0.00 93 1007.3
20260901234140 56 292 0.0 0.0 0.00 0.00 0.00 93 1007.3
20260901234110 56 292 0.0 0.0 0.00 0.00 0.00 93 1007.3
20260901234040 56 292 0.0 0.0 0.00 0.00 0.00 93 1007.3
20260901234010 56 292 0.0 0.0 0.00 0.00 0.00 93 1007.3
20260901233940 56 292 0.0 0.0 0.00 0.00 0.00 93 1007.3
20260901233910 56 292 0.0 0.0 0.00 0.00 0.00 93 1007.3
20260901233840 56 292 0.0 0.0 0.00 0.00 0.00 93 1007.3
20260901233810 56 292 0.0 0.0 0.00 0.00 0.00 93 1007.3
20260901233740 56 292 0.0 0.0 0.00 0.00 0.00 93 1007.3
20260901233710 56 292 0.0 0.0 0.00 0.00 0.00 93 1007.3
20260901233640 56 292 0.0 0.0 0.00 0.00 0.00 93 1007.3
20260901233610 56 292 0.0 0.0 0.00 0.00 0.00 93 1007.3
20260901233540 56 292 0.0 0.0 0.00 0.00 0.00 93 1007.2
20260901233512 56 292 0.0 0.0 0.00 0.00 0.00 93 1007.2
20260901233440 56 292 0.0 0.0 0.00 0.00 0.00 93 1007.2
20260901233410 56 292 0.0 0.0 0.00 0.00 0.00 93 1007.2
20260901233340 56 292 0.0 0.0 0.00 0.00 0.00 93 1007.2
20260901233310 56 292 0.0 0.0 0.00 0.00 0.00 93 1007.2
20260901233240 56 292 0.0 0.0 0.00 0.00 0.00 94 1007.2
20260901233210 56 292 0.0 0.0 0.00 0.00 0.00 94 1007.2
20260901233143 56 292 0.0 0.0 0.00 0.00 0.00 94 1007.2
20260901233140 56 292 0.0 0.0 0.00 0.00 0.00 94 1007.2
20260901233131 56 292 0.0 0.0 0.00 0.00 0.00 94 1007.2
20260901233113 56 292 0.0 0.0 0.00 0.00 0.00 94 1007.3
20260901232940 56 292 0.0 0.0 0.00 0.00 0.00 94 1007.3
20260901232909 56 292 0.0 0.0 0.00 0.00 0.00 94 1007.3
20260901232840 56 292 0.0 0.0 0.00 0.00 0.00 94 1007.3
20260901232810 56 292 0.0 0.0 0.00 0.00 0.00 94 1007.3
20260901232740 56 292 0.0 0.0 0.00 0.00 0.00 94 1007.3
20260901232710 56 292 0.0 0.0 0.00 0.00 0.00 94 1007.3
20260901232640 56 292 0.0 0.0 0.00 0.00 0.00 94 1007.3
20260901232610 56 292 0.0 0.0 0.00 0.00 0.00 94 1007.3
20260901232540 56 292 0.0 0.0 0.00 0.00 0.00 94 1007.2
20260901232510 56 292 0.0 0.0 0.00 0.00 0.00 94 1007.2
20260901232440 56 292 0.0 0.0 0.00 0.00 0.00 94 1007.2
20260901232410 56 292 0.0 0.0 0.00 0.00 0.00 94 1007.2
20260901232341 56 292 0.0 0.0 0.00 0.00 0.00 94 1007.2
20260901232310 56 292 0.0 0.0 0.00 0.00 0.00 94 1007.2
20260901232240 56 292 0.0 0.0 0.00 0.00 0.00 94 1007.2
20260901232210 56 292 0.0 0.0 0.00 0.00 0.00 94 1007.2
20260901232139 56 292 0.0 0.0 0.00 0.00 0.00 94 1007.2
20260901232110 56 292 0.0 0.0 0.00 0.00 0.00 94 1007.2
20260901232040 56 292 0.0 0.0 0.00 0.00 0.00 94 1007.3
20260901232010 56 292 0.0 0.0 0.00 0.00 0.00 94 1007.3
20260901231943 56 292 0.0 0.0 0.00 0.00 0.00 94 1007.3
20260901231910 56 292 0.0 0.0 0.00 0.00 0.00 94 1007.3
20260901231840 56 292 0.0 0.0 0.00 0.00 0.00 94 1007.3
20260901231810 56 292 0.0 0.0 0.00 0.00 0.00 94 1007.3
20260901231739 56 292 0.0 0.0 0.00 0.00 0.00 94 1007.3
20260901231710 56 292 0.0 0.0 0.00 0.00 0.00 94 1007.3
20260901231643 56 292 0.0 0.0 0.00 0.00 0.00 94 1007.3
20260901231610 56 292 0.0 0.0 0.00 0.00 0.00 94 1007.3
20260901231540 56 292 0.0 0.0 0.00 0.00 0.00 94 1007.3
20260901231510 56 292 0.0 0.0 0.00 0.00 0.00 94 1007.3
20260901231440 56 292 0.0 0.0 0.00 0.00 0.00 94 1007.3
20260901231413 56 292 0.0 0.0 0.00 0.00 0.00 94 1007.3
20260901231240 56 292 0.0 0.0 0.00 0.00 0.00 94 1007.3
20260901231210 56 292 0.0 0.0 0.00 0.00 0.00 94 1007.3
20260901231140 56 292 0.0 0.0 0.00 0.00 0.00 94 1007.3
20260901231110 56 292 0.0 0.0 0.00 0.00 0.00 94 1007.3
20260901231040 56 292 0.0 0.0 0.00 0.00 0.00 94 1007.3
20260901231010 56 292 0.0 0.0 0.00 0.00 0.00 94 1007.3
20260901230940 56 292 0.0 0.0 0.00 0.00 0.00 94 1007.3
20260901230910 56 292 0.0 0.0 0.00 0.00 0.00 94 1007.3
20260901230840 56 292 0.0 0.0 0.00 0.00 0.00 94 1007.3
20260901230710 56 292 0.0 0.0 0.00 0.00 0.00 94 1007.3
20260901230640 56 292 0.0 0.0 0.00 0.00 0.00 94 1007.3
20260901230610 56 292 0.0 0.0 0.00 0.00 0.00 94 1007.3
20260901230542 56 292 0.0 0.0 0.00 0.00 0.00 94 1007.6
20260901230509 56 292 0.0 0.0 0.00 0.00 0.00 94 1007.6
20260901230440 56 292 0.0 0.0 0.00 0.00 0.00 94 1007.6
20260901230409 56 292 0.0 0.0 0.00 0.00 0.00 94 1007.6
20260901230339 56 292 0.0 0.0 0.00 0.00 0.00 94 1007.6
20260901230310 56 292 0.0 0.0 0.00 0.00 0.00 94 1007.6
20260901230240 56 292 0.0 0.0 0.00 0.00 0.00 94 1007.6
20260901230213 56 292 0.0 0.0 0.00 0.00 0.00 94 1007.6
20260901230110 56 292 0.0 0.0 0.00 0.00 0.00 94 1007.6
20260901230040 56 292 0.0 0.0 0.00 0.00 0.00 94 1007.4
20260901230009 56 292 0.0 0.0 0.00 0.00 0.00 94 1007.4
20260901225940 56 292 0.0 0.0 0.00 0.00 0.00 94 1007.4
20260901225909 56 292 0.0 0.0 0.00 0.00 0.00 94 1007.4
20260901225840 56 292 0.0 0.0 0.00 0.00 0.00 94 1007.4
20260901225810 56 292 0.0 0.0 0.00 0.00 0.00 94 1007.4
20260901225740 56 292 0.0 0.0 0.00 0.00 0.00 94 1007.4
20260901225710 56 292 0.0 0.0 0.00 0.00 0.00 94 1007.4
20260901225642 56 292 0.0 0.0 0.00 0.00 0.00 94 1007.4
20260901225510 56 292 0.0 0.0 0.00 0.00 0.00 94 1007.3
20260901225440 56 292 0.0 0.0 0.00 0.00 0.00 94 1007.3
20260901225410 56 292 0.0 0.0 0.00 0.00 0.00 94 1007.3
20260901225339 56 292 0.0 0.0 0.00 0.00 0.00 94 1007.3
20260901225309 56 292 0.0 0.0 0.00 0.00 0.00 94 1007.3
20260901225240 56 292 0.0 0.0 0.00 0.00 0.00 94 1007.3
20260901225209 56 292 0.0 0.0 0.00 0.00 0.00 94 1007.3
20260901225139 56 292 0.0 0.0 0.00 0.00 0.00 94 1007.3
20260901225109 56 292 0.0 0.0 0.00 0.00 0.00 94 1007.3
20260901225043 56 292 0.0 0.0 0.00 0.00 0.00 94 1007.4
20260901225040 56 292 0.0 0.0 0.00 0.00 0.00 94 1007.4
20260901225009 56 292 0.0 0.0 0.00 0.00 0.00 94 1007.4
20260901224940 56 292 0.0 0.0 0.00 0.00 0.00 94 1007.4
20260901224840 56 292 0.0 0.0 0.00 0.00 0.00 94 1007.4
20260901224810 56 292 0.0 0.0 0.00 0.00 0.00 94 1007.4
20260901224710 56 292 0.0 0.0 0.00 0.00 0.00 93 1007.4
20260901224639 56 292 0.0 0.0 0.00 0.00 0.00 93 1007.4
20260901224610 56 292 0.0 0.0 0.00 0.00 0.00 93 1007.4
20260901224539 56 292 0.0 0.0 0.00 0.00 0.00 93 1007.5
20260901224509 56 292 0.0 0.0 0.00 0.00 0.00 93 1007.5
20260901224440 56 292 0.0 0.0 0.00 0.00 0.00 93 1007.5
20260901224410 56 292 0.0 0.0 0.00 0.00 0.00 93 1007.5
20260901224340 56 292 0.0 0.0 0.00 0.00 0.00 93 1007.5
20260901224309 56 292 0.0 0.0 0.00 0.00 0.00 93 1007.5
20260901224239 56 292 0.0 0.0 0.00 0.00 0.00 93 1007.5
20260901224209 56 292 0.0 0.0 0.00 0.00 0.00 93 1007.5
20260901224140 56 292 0.0 0.0 0.00 0.00 0.00 93 1007.5
20260901224109 56 292 0.0 0.0 0.00 0.00 0.00 93 1007.5
20260901224040 56 292 0.0 0.0 0.00 0.00 0.00 93 1007.4
20260901224016 56 292 0.0 0.0 0.00 0.00 0.00 93 1007.4
20260901224014 56 292 0.0 0.0 0.00 0.00 0.00 93 1007.4
20260901224010 56 292 0.0 0.0 0.00 0.00 0.00 93 1007.4
20260901223943 56 292 0.0 0.0 0.00 0.00 0.00 93 1007.4
20260901223809 56 292 0.0 0.0 0.00 0.00 0.00 93 1007.4
20260901223739 56 292 0.0 0.0 0.00 0.00 0.00 93 1007.4
20260901223709 56 292 0.0 0.0 0.00 0.00 0.00 93 1007.4
20260901223640 56 292 0.0 0.0 0.00 0.00 0.00 93 1007.4
20260901223540 56 292 0.0 0.0 0.00 0.00 0.00 93 1007.4
20260901223510 56 292 0.0 0.0 0.00 0.00 0.00 93 1007.4
20260901223439 56 292 0.0 0.0 0.00 0.00 0.00 93 1007.4
20260901223410 56 292 0.0 0.0 0.00 0.00 0.00 93 1007.4
20260901223340 56 292 0.0 0.0 0.00 0.00 0.00 93 1007.4
20260901223309 56 292 0.0 0.0 0.00 0.00 0.00 93 1007.4
20260901223239 57 292 0.0 0.0 0.00 0.00 0.00 93 1007.4
20260901223210 57 292 0.0 0.0 0.00 0.00 0.00 93 1007.4
20260901223140 57 292 0.0 0.0 0.00 0.00 0.00 93 1007.4
20260901223110 57 292 0.0 0.0 0.00 0.00 0.00 93 1007.4
20260901223044 57 292 0.0 0.0 0.00 0.00 0.00 93 1007.1
20260901223010 57 292 0.0 0.0 0.00 0.00 0.00 93 1007.1
20260901222940 57 292 0.0 0.0 0.00 0.00 0.00 93 1007.1
20260901222910 57 292 0.0 0.0 0.00 0.00 0.00 93 1007.1
20260901222839 57 292 0.0 0.0 0.00 0.00 0.00 93 1007.1
20260901222809 57 292 0.0 0.0 0.00 0.00 0.00 93 1007.1
20260901222739 57 292 0.0 0.0 0.00 0.00 0.00 93 1007.1
20260901222709 57 292 0.0 0.0 0.00 0.00 0.00 93 1007.1
20260901222640 57 292 0.0 0.0 0.00 0.00 0.00 93 1007.1
20260901222610 57 292 0.0 0.0 0.00 0.00 0.00 93 1007.1
20260901222539 57 292 0.0 0.0 0.00 0.00 0.00 93 1007.3
20260901222510 57 292 0.0 0.0 0.00 0.00 0.00 93 1007.3
20260901222440 57 292 0.0 0.0 0.00 0.00 0.00 93 1007.3
20260901222410 57 292 0.0 0.0 0.00 0.00 0.00 93 1007.3
20260901222340 57 292 0.0 0.0 0.00 0.00 0.00 93 1007.3
20260901222314 57 292 0.0 0.0 0.00 0.00 0.00 93 1007.3
20260901222310 57 292 0.0 0.0 0.00 0.00 0.00 93 1007.3
20260901222242 57 292 0.0 0.0 0.00 0.00 0.00 93 1007.3
20260901222112 57 292 0.0 0.0 0.00 0.00 0.00 93 1007.3
20260901222039 57 292 0.0 0.0 0.00 0.00 0.00 93 1007.5
20260901222009 57 292 0.0 0.0 0.00 0.00 0.00 93 1007.5
20260901221940 57 292 0.0 0.0 0.00 0.00 0.00 93 1007.5
20260901221909 57 292 0.0 0.0 0.00 0.00 0.00 92 1007.5
20260901221839 57 292 0.0 0.0 0.00 0.00 0.00 92 1007.5
20260901221809 57 292 0.0 0.0 0.00 0.00 0.00 92 1007.5
20260901221739 57 292 0.0 0.0 0.00 0.00 0.00 92 1007.5
20260901221709 57 292 0.0 0.0 0.00 0.00 0.00 92 1007.5
20260901221639 57 292 0.0 0.0 0.00 0.00 0.00 92 1007.5
20260901221609 57 292 0.0 0.0 0.00 0.00 0.00 92 1007.5
20260901221540 57 292 0.0 0.0 0.00 0.00 0.00 92 1007.4
20260901221510 57 292 0.0 0.0 0.00 0.00 0.00 92 1007.4
20260901221439 57 292 0.0 0.0 0.00 0.00 0.00 92 1007.4
20260901221411 57 292 0.0 0.0 0.00 0.00 0.00 92 1007.4
20260901221340 57 292 0.0 0.0 0.00 0.00 0.00 92 1007.4
20260901221310 57 292 0.0 0.0 0.00 0.00 0.00 93 1007.4
20260901221242 57 292 0.0 0.0 0.00 0.00 0.00 93 1007.4
20260901221209 57 292 0.0 0.0 0.00 0.00 0.00 93 1007.4
20260901221139 57 292 0.0 0.0 0.00 0.00 0.00 93 1007.4
20260901221040 57 292 0.0 0.0 0.00 0.00 0.00 93 1007.4
20260901221009 57 292 0.0 0.0 0.00 0.00 0.00 93 1007.4
20260901220939 57 292 0.0 0.0 0.00 0.00 0.00 92 1007.4
20260901220909 57 292 0.0 0.0 0.00 0.00 0.00 92 1007.4
20260901220839 57 292 0.0 0.0 0.00 0.00 0.00 92 1007.4
20260901220809 57 292 0.0 0.0 0.00 0.00 0.00 92 1007.4
20260901220739 57 292 0.0 0.0 0.00 0.00 0.00 92 1007.4
20260901220709 57 292 0.0 0.0 0.00 0.00 0.00 92 1007.4
20260901220640 57 292 0.0 0.0 0.00 0.00 0.00 92 1007.4
20260901220610 57 292 0.0 0.0 0.00 0.00 0.00 92 1007.4
20260901220543 57 292 0.0 0.0 0.00 0.00 0.00 92 1007.3
20260901220410 57 292 0.0 0.0 0.00 0.00 0.00 92 1007.3
20260901220339 57 292 0.0 0.0 0.00 0.00 0.00 92 1007.3
20260901220309 57 292 0.0 0.0 0.00 0.00 0.00 92 1007.3
20260901220239 57 292 0.0 0.0 0.00 0.00 0.00 92 1007.3
20260901220209 57 292 0.0 0.0 0.00 0.00 0.00 92 1007.3
20260901220140 58 292 0.0 0.0 0.00 0.00 0.00 92 1007.3
20260901220110 58 292 0.0 0.0 0.00 0.00 0.00 92 1007.3
20260901220039 58 292 0.0 0.0 0.00 0.00 0.00 92 1007.5
20260901220010 58 292 0.0 0.0 0.00 0.00 0.00 92 1007.5
20260901215939 58 292 0.0 0.0 0.00 0.00 0.00 92 1007.5
20260901215909 58 292 0.0 0.0 0.00 0.00 0.00 92 1007.5
20260901215840 58 292 0.0 0.0 0.00 0.00 0.00 92 1007.5
20260901215809 58 292 0.0 0.0 0.00 0.00 0.00 92 1007.5
20260901215740 58 292 0.0 0.0 0.00 0.00 0.00 92 1007.5
20260901215709 58 292 0.0 0.0 0.00 0.00 0.00 92 1007.5
20260901215639 58 292 0.0 0.0 0.00 0.00 0.00 92 1007.5
20260901215610 58 292 0.0 0.0 0.00 0.00 0.00 92 1007.5
20260901215540 58 292 0.0 0.0 0.00 0.00 0.00 92 1007.4
20260901215510 58 292 0.0 0.0 0.00 0.00 0.00 92 1007.4
20260901215439 58 292 0.0 0.0 0.00 0.00 0.00 92 1007.4
20260901215409 58 292 0.0 0.0 0.00 0.00 0.00 92 1007.4
20260901215339 58 292 0.0 0.0 0.00 0.00 0.00 92 1007.4
20260901215309 58 292 0.0 0.0 0.00 0.00 0.00 92 1007.4
20260901215240 58 292 0.0 0.0 0.00 0.00 0.00 92 1007.4
20260901215209 58 292 0.0 0.0 0.00 0.00 0.00 92 1007.4
20260901215139 58 292 0.0 0.0 0.00 0.00 0.00 92 1007.4
20260901215110 58 292 0.0 0.0 0.00 0.00 0.00 92 1007.4
20260901215040 58 292 0.0 0.0 0.00 0.00 0.00 92 1007.4
20260901215009 58 292 0.0 0.0 0.00 0.00 0.00 92 1007.4
20260901214939 58 292 0.0 0.0 0.00 0.00 0.00 92 1007.4
20260901214910 58 292 0.0 0.0 0.00 0.00 0.00 92 1007.4
20260901214842 58 292 0.0 0.0 0.00 0.00 0.00 92 1007.4
20260901214709 58 292 0.0 0.0 0.00 0.00 0.00 92 1007.4
20260901214639 58 292 0.0 0.0 0.00 0.00 0.00 92 1007.4
20260901214611 58 292 0.0 0.0 0.00 0.00 0.00 92 1007.4
20260901214539 58 292 0.0 0.0 0.00 0.00 0.00 92 1007.4
20260901214512 58 292 0.0 0.0 0.00 0.00 0.00 92 1007.4
20260901214439 58 292 0.0 0.0 0.00 0.00 0.00 92 1007.4
20260901214413 58 292 0.0 0.0 0.00 0.00 0.00 92 1007.4
20260901214409 58 292 0.0 0.0 0.00 0.00 0.00 92 1007.4
20260901214342 58 292 0.0 0.0 0.00 0.00 0.00 92 1007.4
20260901214141 58 292 0.0 0.0 0.00 0.00 0.00 92 1007.4
20260901214040 58 292 0.0 0.0 0.00 0.00 0.00 92 1007.4
20260901214009 58 292 0.0 0.0 0.00 0.00 0.00 92 1007.4
20260901213939 58 292 0.0 0.0 0.00 0.00 0.00 92 1007.4
20260901213909 58 292 0.0 0.0 0.00 0.00 0.00 92 1007.4
20260901213839 58 292 0.0 0.0 0.00 0.00 0.00 92 1007.4
20260901213809 58 292 0.0 0.0 0.00 0.00 0.00 91 1007.4
20260901213739 58 292 0.0 0.0 0.00 0.00 0.00 91 1007.4
20260901213709 58 292 0.0 0.0 0.00 0.00 0.00 91 1007.4
20260901213610 58 292 0.0 0.0 0.00 0.00 0.00 91 1007.4
20260901213539 58 292 0.0 0.0 0.00 0.00 0.00 91 1007.3
20260901213509 58 292 0.0 0.0 0.00 0.00 0.00 91 1007.3
20260901213439 58 292 0.0 0.0 0.00 0.00 0.00 91 1007.3
20260901213410 58 292 0.0 0.0 0.00 0.00 0.00 91 1007.3
20260901213340 58 292 0.0 0.0 0.00 0.00 0.00 91 1007.3
20260901213309 58 292 0.0 0.0 0.00 0.00 0.00 91 1007.3
20260901213240 58 292 0.0 0.0 0.00 0.00 0.00 91 1007.3
20260901213209 58 292 0.0 0.0 0.00 0.00 0.00 91 1007.3
20260901213139 58 292 0.0 0.0 0.00 0.00 0.00 91 1007.3
20260901213110 58 292 0.0 0.0 0.00 0.00 0.00 91 1007.3
20260901213040 58 292 0.0 0.0 0.00 0.00 0.00 91 1007.4
20260901212939 58 292 0.0 0.0 0.00 0.00 0.00 91 1007.4
20260901212909 58 292 0.0 0.0 0.00 0.00 0.00 91 1007.4
20260901212839 58 292 0.0 0.0 0.00 0.00 0.00 91 1007.4
20260901212809 58 292 0.0 0.0 0.00 0.00 0.00 91 1007.4
20260901212739 58 292 0.0 0.0 0.00 0.00 0.00 91 1007.4
20260901212709 58 292 0.0 0.0 0.00 0.00 0.00 91 1007.4
20260901212643 58 292 0.0 0.0 0.00 0.00 0.00 91 1007.4
20260901212639 58 292 0.0 0.0 0.00 0.00 0.00 91 1007.4
20260901212630 58 292 0.0 0.0 0.00 0.00 0.00 90 1007.4
20260901212612 58 292 0.0 0.0 0.00 0.00 0.00 90 1007.3
20260901212439 59 292 0.0 0.0 0.00 0.00 0.00 90 1007.3
20260901212410 59 292 0.0 0.0 0.00 0.00 0.00 90 1007.3
20260901212339 59 292 0.0 0.0 0.00 0.00 0.00 90 1007.3
20260901212309 59 292 0.0 0.0 0.00 0.00 0.00 90 1007.3
20260901212239 59 292 0.0 0.0 0.00 0.00 0.00 90 1007.3
20260901212209 59 292 0.0 0.0 0.00 0.00 0.00 90 1007.3
20260901212139 59 292 0.0 0.0 0.00 0.00 0.00 90 1007.3
20260901212109 59 292 0.0 0.0 0.00 0.00 0.00 90 1007.3
20260901212039 59 292 0.0 0.0 0.00 0.00 0.00 90 1007.4
20260901212009 59 292 0.0 0.0 0.00 0.00 0.00 90 1007.4
20260901211909 59 292 0.0 0.0 0.00 0.00 0.00 90 1007.4
20260901211843 59 292 0.0 0.0 0.00 0.00 0.00 90 1007.4
20260901211809 59 292 0.0 0.0 0.00 0.00 0.00 90 1007.4
20260901211739 59 292 0.0 0.0 0.00 0.00 0.00 90 1007.4
20260901211712 59 292 0.0 0.0 0.00 0.00 0.00 90 1007.4
20260901211639 59 292 0.0 0.0 0.00 0.00 0.00 90 1007.4
20260901211609 59 292 0.0 0.0 0.00 0.00 0.00 90 1007.4
20260901211539 59 292 0.0 0.0 0.00 0.00 0.00 90 1007.7
20260901211510 59 292 0.0 0.0 0.00 0.00 0.00 90 1007.7
20260901211439 59 292 0.0 0.0 0.00 0.00 0.00 90 1007.7
20260901211413 59 292 0.0 0.0 0.00 0.00 0.00 89 1007.7
20260901211339 59 292 0.0 0.0 0.00 0.00 0.00 89 1007.7
20260901211309 59 292 0.0 0.0 0.00 0.00 0.00 89 1007.7
20260901211239 59 292 0.0 0.0 0.00 0.00 0.00 89 1007.7
20260901211109 59 292 0.0 0.0 0.00 0.00 0.00 89 1007.7
20260901211039 60 292 0.0 0.0 0.00 0.00 0.00 89 1007.4
20260901211009 60 292 0.0 0.0 0.00 0.00 0.00 89 1007.4
20260901210943 60 292 0.0 0.0 0.00 0.00 0.00 89 1007.4
20260901210940 60 292 0.0 0.0 0.00 0.00 0.00 89 1007.4
20260901210913 60 292 0.0 0.0 0.00 0.00 0.00 89 1007.4
20260901210739 60 292 0.0 0.0 0.00 0.00 0.00 89 1007.4
20260901210709 60 292 0.0 0.0 0.00 0.00 0.00 89 1007.4
20260901210639 60 292 0.0 0.0 0.00 0.00 0.00 89 1007.4
20260901210539 60 292 0.0 0.0 0.00 0.00 0.00 89 1007.4
20260901210510 60 292 0.0 0.0 0.00 0.00 0.00 89 1007.4
20260901210439 60 292 0.0 0.0 0.00 0.00 0.00 89 1007.4
20260901210410 60 292 0.0 0.0 0.00 0.00 0.00 89 1007.4
20260901210339 60 292 0.0 0.0 0.00 0.00 0.00 89 1007.4
20260901210309 60 292 0.0 0.0 0.00 0.00 0.00 89 1007.4
20260901210239 60 292 0.0 0.0 0.00 0.00 0.00 89 1007.4
20260901210209 60 292 0.0 0.0 0.00 0.00 0.00 89 1007.4
20260901210139 60 292 0.0 0.0 0.00 0.00 0.00 89 1007.4
20260901210041 60 292 0.0 0.0 0.00 0.00 0.00 89 1007.5
20260901210010 60 292 0.0 0.0 0.00 0.00 0.00 89 1007.5
20260901205939 60 292 0.0 0.0 0.00 0.00 0.00 89 1007.5
20260901205909 60 292 0.0 0.0 0.00 0.00 0.00 89 1007.5
20260901205840 60 292 0.0 0.0 0.00 0.00 0.00 89 1007.5
20260901205809 60 292 0.0 0.0 0.00 0.00 0.00 89 1007.5
20260901205739 60 292 0.0 0.0 0.00 0.00 0.00 89 1007.5
20260901205709 60 292 0.0 0.0 0.00 0.00 0.00 89 1007.5
20260901205640 60 292 0.0 0.0 0.00 0.00 0.00 89 1007.5
20260901205609 60 292 0.0 0.0 0.00 0.00 0.00 89 1007.5
20260901205539 60 292 0.0 0.0 0.00 0.00 0.00 89 1007.5
20260901205509 60 292 0.0 0.0 0.00 0.00 0.00 89 1007.5
20260901205439 60 292 0.0 0.0 0.00 0.00 0.00 89 1007.5
20260901205410 60 292 0.0 0.0 0.00 0.00 0.00 89 1007.5
20260901205340 60 292 0.0 0.0 0.00 0.00 0.00 89 1007.5
20260901205309 60 292 0.0 0.0 0.00 0.00 0.00 89 1007.5
20260901205239 60 292 0.0 0.0 0.00 0.00 0.00 88 1007.5
20260901205212 60 292 0.0 0.0 0.00 0.00 0.00 88 1007.5
20260901205143 60 292 0.0 0.0 0.00 0.00 0.00 88 1007.5
20260901205009 60 292 0.0 0.0 0.00 0.00 0.00 88 1007.3
20260901204939 60 292 0.0 0.0 0.00 0.00 0.00 88 1007.3
20260901204809 60 292 0.0 0.0 0.00 0.00 0.00 88 1007.3
20260901204739 60 292 0.0 0.0 0.00 0.00 0.00 88 1007.3
20260901204710 60 292 0.0 0.0 0.00 0.00 0.00 88 1007.3
20260901204639 60 292 0.0 0.0 0.00 0.00 0.00 88 1007.3
20260901204610 60 292 0.0 0.0 0.00 0.00 0.00 88 1007.3
20260901204539 60 292 0.0 0.0 0.00 0.00 0.00 88 1007.2
20260901204509 60 292 0.0 0.0 0.00 0.00 0.00 88 1007.2
20260901204439 60 292 0.0 0.0 0.00 0.00 0.00 88 1007.2
20260901204409 60 292 0.0 0.0 0.00 0.00 0.00 88 1007.2
20260901204339 60 292 0.0 0.0 0.00 0.00 0.00 89 1007.2
20260901204310 60 292 0.0 0.0 0.00 0.00 0.00 89 1007.2
20260901204239 60 292 0.0 0.0 0.00 0.00 0.00 89 1007.2
20260901204139 60 292 0.0 0.0 0.00 0.00 0.00 89 1007.2
20260901204109 60 292 0.0 0.0 0.00 0.00 0.00 89 1007.2
20260901204039 60 292 0.0 0.0 0.00 0.00 0.00 89 1007.5
20260901204009 60 292 0.0 0.0 0.00 0.00 0.00 89 1007.5
20260901203939 60 292 0.0 0.0 0.00 0.00 0.00 89 1007.5
20260901203909 60 292 0.0 0.0 0.00 0.00 0.00 89 1007.5
20260901203839 60 292 0.0 0.0 0.00 0.00 0.00 88 1007.5
20260901203809 60 292 0.0 0.0 0.00 0.00 0.00 88 1007.5
20260901203740 60 292 0.0 0.0 0.00 0.00 0.00 88 1007.5
20260901203709 60 292 0.0 0.0 0.00 0.00 0.00 88 1007.5
20260901203639 60 292 0.0 0.0 0.00 0.00 0.00 88 1007.5
20260901203610 60 292 0.0 0.0 0.00 0.00 0.00 88 1007.5
20260901203540 60 292 0.0 0.0 0.00 0.00 0.00 88 1007.4
20260901203509 60 292 0.0 0.0 0.00 0.00 0.00 88 1007.4
20260901203442 60 292 0.0 0.0 0.00 0.00 0.00 88 1007.4
20260901203439 60 292 0.0 0.0 0.00 0.00 0.00 88 1007.4
20260901203430 60 292 0.0 0.0 0.00 0.00 0.00 88 1007.4
20260901203412 60 292 0.0 0.0 0.00 0.00 0.00 88 1007.4
20260901203239 60 292 0.0 0.0 0.00 0.00 0.00 88 1007.4
20260901203210 60 292 0.0 0.0 0.00 0.00 0.00 88 1007.4
20260901203139 60 292 0.0 0.0 0.00 0.00 0.00 88 1007.4
20260901203110 60 292 0.0 0.0 0.00 0.00 0.00 88 1007.4
20260901203039 60 292 0.0 0.0 0.00 0.00 0.00 88 1007.2
20260901203009 60 292 0.0 0.0 0.00 0.00 0.00 88 1007.2
20260901202940 60 292 0.0 0.0 0.00 0.00 0.00 88 1007.2
20260901202909 60 292 0.0 0.0 0.00 0.00 0.00 88 1007.2
20260901202839 60 292 0.0 0.0 0.00 0.00 0.00 88 1007.2
20260901202809 60 292 0.0 0.0 0.00 0.00 0.00 88 1007.2
20260901202739 60 292 0.0 0.0 0.00 0.00 0.00 88 1007.2
20260901202709 60 292 0.0 0.0 0.00 0.00 0.00 88 1007.2
20260901202639 60 292 0.0 0.0 0.00 0.00 0.00 88 1007.2
20260901202610 60 292 0.0 0.0 0.00 0.00 0.00 88 1007.2
20260901202539 60 292 0.0 0.0 0.00 0.00 0.00 88 1007.3
20260901202509 60 292 0.0 0.0 0.00 0.00 0.00 88 1007.3
20260901202439 60 292 0.0 0.0 0.00 0.00 0.00 88 1007.3
20260901202409 60 292 0.0 0.0 0.00 0.00 0.00 88 1007.3
20260901202340 60 292 0.0 0.0 0.00 0.00 0.00 88 1007.3
20260901202309 60 292 0.0 0.0 0.00 0.00 0.00 88 1007.3
20260901202239 60 292 0.0 0.0 0.00 0.00 0.00 88 1007.3
20260901202209 60 292 0.0 0.0 0.00 0.00 0.00 88 1007.3
20260901202139 60 292 0.0 0.0 0.00 0.00 0.00 88 1007.3
20260901202109 60 292 0.0 0.0 0.00 0.00 0.00 88 1007.3
20260901202040 60 292 0.0 0.0 0.00 0.00 0.00 88 1007.0
20260901202009 60 292 0.0 0.0 0.00 0.00 0.00 88 1007.0
20260901201939 60 292 0.0 0.0 0.00 0.00 0.00 88 1007.0
20260901201909 61 292 0.0 0.0 0.00 0.00 0.00 88 1007.0
20260901201839 61 292 0.0 0.0 0.00 0.00 0.00 88 1007.0
20260901201809 61 292 0.0 0.0 0.00 0.00 0.00 88 1007.0
20260901201743 61 292 0.0 0.0 0.00 0.00 0.00 88 1007.0
20260901201740 61 292 0.0 0.0 0.00 0.00 0.00 88 1007.0
20260901201715 61 292 0.0 0.0 0.00 0.00 0.00 88 1007.0
20260901201539 61 292 0.0 0.0 0.00 0.00 0.00 88 1007.1
20260901201509 61 292 0.0 0.0 0.00 0.00 0.00 88 1007.1
20260901201439 61 292 0.0 0.0 0.00 0.00 0.00 88 1007.1
20260901201409 61 292 0.0 0.0 0.00 0.00 0.00 88 1007.1
20260901201339 61 292 0.0 0.0 0.00 0.00 0.00 88 1007.1
20260901201239 61 292 0.0 0.0 0.00 0.00 0.00 88 1007.1
20260901201211 61 292 0.0 0.0 0.00 0.00 0.00 88 1007.1
20260901201139 61 292 0.0 0.0 0.00 0.00 0.00 88 1007.1
20260901201109 61 292 0.0 0.0 0.00 0.00 0.00 88 1007.1
20260901201039 61 292 0.0 0.0 0.00 0.00 0.00 88 1007.2
20260901200939 61 292 0.0 0.0 0.00 0.00 0.00 88 1007.2
20260901200439 61 292 0.0 0.0 0.00 0.00 0.00 87 1007.0
20260901200409 61 292 0.0 0.0 0.00 0.00 0.00 87 1007.0
20260901200339 61 292 0.0 0.0 0.00 0.00 0.00 87 1007.0
20260901200310 61 292 0.0 0.0 0.00 0.00 0.00 87 1007.0
20260901200239 61 292 0.0 0.0 0.00 0.00 0.00 87 1007.0
20260901200209 61 292 0.0 0.0 0.00 0.00 0.00 87 1007.0
20260901200139 61 292 0.0 0.0 0.00 0.00 0.00 87 1007.0
20260901200109 61 292 0.0 0.0 0.00 0.00 0.00 87 1007.0
20260901200042 61 292 0.0 0.0 0.00 0.00 0.00 87 1007.2
20260901200040 61 292 0.0 0.0 0.00 0.00 0.00 87 1007.2
20260901200038 61 292 0.0 0.0 0.00 0.00 0.00 87 1007.2
20260901195809 61 292 0.0 0.0 0.00 0.00 0.00 87 1007.2
20260901195739 61 292 0.0 0.0 0.00 0.00 0.00 86 1007.2
20260901195709 61 292 0.0 0.0 0.00 0.00 0.00 86 1007.2
20260901195639 61 292 0.0 0.0 0.00 0.00 0.00 86 1007.2
20260901195610 61 292 0.0 0.0 0.00 0.00 0.00 87 1007.2
20260901195539 61 292 0.0 0.0 0.00 0.00 0.00 86 1007.1
20260901195509 61 292 0.0 0.0 0.00 0.00 0.00 86 1007.1
20260901195440 61 292 0.0 0.0 0.00 0.00 0.00 86 1007.1
20260901195409 61 292 0.0 0.0 0.00 0.00 0.00 86 1007.1
20260901195339 61 292 0.0 0.0 0.00 0.00 0.00 86 1007.1
20260901195310 61 292 0.0 0.0 0.00 0.00 0.00 86 1007.1
20260901195239 61 292 0.0 0.0 0.00 0.00 0.00 86 1007.1
20260901195209 61 292 0.0 0.0 0.00 0.00 0.00 86 1007.1
20260901195139 61 292 0.0 0.0 0.00 0.00 0.00 86 1007.1
20260901195110 61 292 0.0 0.0 0.00 0.00 0.00 86 1007.1
20260901195039 61 292 0.0 0.0 0.00 0.00 0.00 86 1007.1
20260901195009 61 292 0.0 0.0 0.00 0.00 0.00 86 1007.1
20260901194939 61 292 0.0 0.0 0.00 0.00 0.00 86 1007.1
20260901194909 61 292 0.0 0.0 0.00 0.00 0.00 86 1007.1
20260901194839 61 292 0.0 0.0 0.00 0.00 0.00 85 1007.1
20260901194809 61 292 0.0 0.0 0.00 0.00 0.00 85 1007.1
20260901194739 61 292 0.0 0.0 0.00 0.00 0.00 85 1007.1
20260901194709 61 292 0.0 0.0 0.00 0.00 0.00 85 1007.1
20260901194641 61 292 0.0 0.0 0.00 0.00 0.00 85 1007.1
20260901194609 61 292 0.0 0.0 0.00 0.00 0.00 85 1007.1
20260901194539 61 292 0.0 0.0 0.00 0.00 0.00 85 1007.2
20260901194511 61 292 0.0 0.0 0.00 0.00 0.00 85 1007.2
20260901194339 61 292 0.0 0.0 0.00 0.00 0.00 85 1007.2
20260901194312 61 292 0.0 0.0 0.00 0.00 0.00 85 1007.2
20260901194239 61 292 0.0 0.0 0.00 0.00 0.00 85 1007.2
20260901194209 61 292 0.0 0.0 0.00 0.00 0.00 85 1007.2
20260901194139 61 292 0.0 0.0 0.00 0.00 0.00 85 1007.2
20260901194110 61 292 0.0 0.0 0.00 0.00 0.00 85 1007.2
20260901194039 61 292 0.0 0.0 0.00 0.00 0.00 85 1006.9
20260901194009 61 292 0.0 0.0 0.00 0.00 0.00 85 1006.9
20260901193939 61 292 0.0 0.0 0.00 0.00 0.00 85 1006.9
20260901193909 61 292 0.0 0.0 0.00 0.00 0.00 85 1006.9
20260901193809 61 292 0.0 0.0 0.00 0.00 0.00 86 1006.9
20260901193739 61 292 0.0 0.0 0.00 0.00 0.00 86 1006.9
20260901193639 61 292 0.0 0.0 0.00 0.00 0.00 86 1006.9
20260901193609 61 292 0.0 0.0 0.00 0.00 0.00 86 1006.9
20260901193539 61 292 0.0 0.0 0.00 0.00 0.00 86 1006.9
20260901193509 61 292 0.0 0.0 0.00 0.00 0.00 86 1006.9
20260901193439 61 292 0.0 0.0 0.00 0.00 0.00 86 1006.9
20260901193409 61 292 0.0 0.0 0.00 0.00 0.00 86 1006.9
20260901193339 61 292 0.0 0.0 0.00 0.00 0.00 86 1006.9
20260901193239 61 292 0.0 0.0 0.00 0.00 0.00 86 1006.9
20260901193209 61 292 0.0 0.0 0.00 0.00 0.00 86 1006.9
20260901193139 61 292 0.0 0.0 0.00 0.00 0.00 86 1006.9
20260901193109 61 292 0.0 0.0 0.00 0.00 0.00 86 1006.9
20260901193039 61 292 0.0 0.0 0.00 0.00 0.00 86 1007.0
20260901193009 61 292 0.0 0.0 0.00 0.00 0.00 86 1007.0
20260901192939 61 292 0.0 0.0 0.00 0.00 0.00 86 1007.0
20260901192909 61 292 0.0 0.0 0.00 0.00 0.00 85 1007.0
20260901192839 61 292 0.0 0.0 0.00 0.00 0.00 85 1007.0
20260901192809 61 292 0.0 0.0 0.00 0.00 0.00 85 1007.0
20260901192739 61 292 0.0 0.0 0.00 0.00 0.00 85 1007.0
20260901192709 61 292 0.0 0.0 0.00 0.00 0.00 85 1007.0
20260901192639 61 292 0.0 0.0 0.00 0.00 0.00 85 1007.0
20260901192609 61 292 0.0 0.0 0.00 0.00 0.00 85 1007.0
20260901192539 61 292 0.0 0.0 0.00 0.00 0.00 85 1006.9
20260901192510 61 292 0.0 0.0 0.00 0.00 0.00 85 1006.9
20260901192439 61 292 0.0 0.0 0.00 0.00 0.00 85 1006.9
20260901192409 61 292 0.0 0.0 0.00 0.00 0.00 85 1006.9
20260901192309 61 292 0.0 0.0 0.00 0.00 0.00 85 1006.9
20260901192239 61 292 0.0 0.0 0.00 0.00 0.00 85 1006.9
20260901192209 61 292 0.0 0.0 0.00 0.00 0.00 85 1006.9
20260901192139 61 292 0.0 0.0 0.00 0.00 0.00 85 1006.9
20260901192109 61 292 0.0 0.0 0.00 0.00 0.00 85 1006.9
20260901192039 62 292 0.0 0.0 0.00 0.00 0.00 85 1006.8
20260901192009 62 292 0.0 0.0 0.00 0.00 0.00 85 1006.8
20260901191940 62 292 0.0 0.0 0.00 0.00 0.00 85 1006.8
20260901191909 62 292 0.0 0.0 0.00 0.00 0.00 84 1006.8
20260901191839 62 292 0.0 0.0 0.00 0.00 0.00 84 1006.8
20260901191809 62 292 0.0 0.0 0.00 0.00 0.00 84 1006.8
20260901191739 62 292 0.0 0.0 0.00 0.00 0.00 84 1006.8
20260901191709 62 292 0.0 0.0 0.00 0.00 0.00 84 1006.8
20260901191639 62 292 0.0 0.0 0.00 0.00 0.00 84 1006.8
20260901191609 62 292 0.0 0.0 0.00 0.00 0.00 84 1006.8
20260901191539 62 292 0.0 0.0 0.00 0.00 0.00 84 1006.9
20260901191509 62 292 0.0 0.0 0.00 0.00 0.00 84 1006.9
20260901191439 62 292 0.0 0.0 0.00 0.00 0.00 84 1006.9
20260901191409 62 292 0.0 0.0 0.00 0.00 0.00 84 1006.9
20260901191338 62 292 0.0 0.0 0.00 0.00 0.00 84 1006.9
20260901191309 62 292 0.0 0.0 0.00 0.00 0.00 84 1006.9
20260901191139 62 292 0.0 0.0 0.00 0.00 0.00 83 1006.9
20260901191108 62 292 0.0 0.0 0.00 0.00 0.00 83 1006.9
20260901191039 62 292 0.0 0.0 0.00 0.00 0.00 83 1006.9
20260901191008 62 292 0.0 0.0 0.00 0.00 0.00 83 1006.9
20260901190939 62 292 0.0 0.0 0.00 0.00 0.00 84 1006.9
20260901190909 62 292 0.0 0.0 0.00 0.00 0.00 84 1006.9
20260901190838 62 292 0.0 0.0 0.00 0.00 0.00 83 1006.9
20260901190809 62 292 0.0 0.0 0.00 0.00 0.00 83 1006.9
20260901190739 62 292 0.0 0.0 0.00 0.00 0.00 83 1006.9
20260901190708 62 292 0.0 0.0 0.00 0.00 0.00 83 1006.9
20260901190639 62 292 0.0 0.0 0.00 0.00 0.00 83 1006.9
20260901190608 62 292 0.0 0.0 0.00 0.00 0.00 83 1006.9
20260901190540 62 292 0.0 0.0 0.00 0.00 0.00 83 1006.7
20260901190509 62 292 0.0 0.0 0.00 0.00 0.00 83 1006.7
20260901190439 62 292 0.0 0.0 0.00 0.00 0.00 83 1006.7
20260901190409 62 292 0.0 0.0 0.00 0.00 0.00 83 1006.7
20260901190338 62 292 0.0 0.0 0.00 0.00 0.00 83 1006.7
20260901190308 62 292 0.0 0.0 0.00 0.00 0.00 83 1006.7
20260901190239 62 292 0.0 0.0 0.00 0.00 0.00 83 1006.7
20260901190209 62 292 0.0 0.0 0.00 0.00 0.00 83 1006.7
20260901190138 62 292 0.0 0.0 0.00 0.00 0.00 82 1006.7
20260901190108 62 292 0.0 0.0 0.00 0.00 0.00 82 1006.7
20260901190038 62 292 0.0 0.0 0.00 0.00 0.00 82 1006.9
20260901190010 62 292 0.0 0.0 0.00 0.00 0.00 82 1006.9
20260901185909 62 292 0.0 0.0 0.00 0.00 0.00 82 1006.9
20260901185841 62 292 0.0 0.0 0.00 0.00 0.00 82 1006.9
20260901185808 62 292 0.0 0.0 0.00 0.00 0.00 82 1006.9
20260901185738 62 292 0.0 0.0 0.00 0.00 0.00 82 1006.9
20260901185709 63 292 0.0 0.0 0.00 0.00 0.00 82 1006.9
20260901185639 63 292 0.0 0.0 0.00 0.00 0.00 82 1006.9
20260901185608 63 292 0.0 0.0 0.00 0.00 0.00 82 1006.9
20260901185539 63 292 0.0 0.0 0.00 0.00 0.00 82 1006.7
20260901185509 63 292 0.0 0.0 0.00 0.00 0.00 82 1006.7
20260901185439 63 292 0.0 0.0 0.00 0.00 0.00 82 1006.7
20260901185409 63 292 0.0 0.0 0.00 0.00 0.00 82 1006.7
20260901185339 63 292 0.0 0.0 0.00 0.00 0.00 81 1006.7
20260901185309 63 292 0.0 0.0 0.00 0.00 0.00 81 1006.7
20260901185238 63 292 0.0 0.0 0.00 0.00 0.00 81 1006.7
20260901185208 63 292 0.0 0.0 0.00 0.00 0.00 81 1006.7
20260901185140 63 292 0.0 0.0 0.00 0.00 0.00 81 1006.7